IK6IHU-3 Weather Reports


Display with metric or nautical units.
time (UTC)temp
F
wind
direction
speed
MPH
gust
MPH
rain 1hr
in
rain 24hr
in
rain mn
in
humidity
%
barometer
mb
20260507191828 60 337 0.0 2.0 0.00 0.00 0.00 70 1013.8
20260507191728 60 337 0.0 2.0 0.00 0.00 0.00 70 1013.6
20260507191628 60 337 0.0 2.0 0.00 0.00 0.00 70 1013.6
20260507191528 60 337 0.0 2.0 0.00 0.00 0.00 70 1013.7
20260507191428 60 337 0.0 2.0 0.00 0.00 0.00 70 1013.6
20260507191328 60 337 0.0 2.0 0.00 0.00 0.00 70 1013.7
20260507191228 60 337 0.0 2.0 0.00 0.00 0.00 70 1013.8
20260507191128 61 337 0.0 2.0 0.00 0.00 0.00 70 1013.5
20260507191028 61 337 0.0 2.0 0.00 0.00 0.00 69 1013.6
20260507190928 61 339 0.0 2.0 0.00 0.00 0.00 69 1013.4
20260507190828 61 341 0.0 2.0 0.00 0.00 0.00 69 1013.4
20260507190728 61 340 1.0 2.0 0.00 0.00 0.00 69 1013.5
20260507190628 61 340 0.0 2.0 0.00 0.00 0.00 69 1013.5
20260507190528 61 340 0.0 2.0 0.00 0.00 0.00 69 1013.4
20260507190428 61 340 0.0 2.0 0.00 0.00 0.00 69 1013.5
20260507190328 61 339 0.0 2.0 0.00 0.00 0.00 69 1013.4
20260507190228 61 339 0.0 2.0 0.00 0.00 0.00 69 1013.4
20260507190128 61 339 2.0 2.0 0.00 0.00 0.00 69 1013.5
20260507190028 61 340 2.0 2.0 0.00 0.00 0.00 69 1013.5
20260507185928 61 339 2.0 2.0 0.00 0.00 0.00 69 1013.4
20260507185828 61 339 2.0 2.0 0.00 0.00 0.00 69 1013.3
20260507185728 61 340 2.0 2.0 0.00 0.00 0.00 69 1013.5
20260507185628 61 340 2.0 2.0 0.00 0.00 0.00 69 1013.5
20260507185528 61 340 2.0 2.0 0.00 0.00 0.00 70 1013.5
20260507185428 60 338 2.0 2.0 0.00 0.00 0.00 70 1013.6
20260507185328 60 336 2.0 2.0 0.00 0.00 0.00 70 1013.4
20260507185228 61 335 2.0 4.0 0.00 0.00 0.00 70 1013.2
20260507185128 61 332 1.0 4.0 0.00 0.00 0.00 70 1013.3
20260507185028 61 332 1.0 4.0 0.00 0.00 0.00 70 1013.4
20260507184928 61 332 1.0 4.0 0.00 0.00 0.00 70 1013.4
20260507184828 61 333 1.0 4.0 0.00 0.00 0.00 70 1013.3
20260507184728 61 330 1.0 4.0 0.00 0.00 0.00 70 1013.4
20260507184628 61 329 2.0 6.0 0.00 0.00 0.00 69 1013.3
20260507184528 61 328 2.0 6.0 0.00 0.00 0.00 69 1013.5
20260507184428 61 327 2.0 6.0 0.00 0.00 0.00 69 1013.3
20260507184328 61 326 2.0 6.0 0.00 0.00 0.00 69 1013.3
20260507184228 61 325 2.0 6.0 0.00 0.00 0.00 69 1013.4
20260507184128 61 326 2.0 6.0 0.00 0.00 0.00 69 1013.3
20260507184028 61 324 3.0 6.0 0.00 0.00 0.00 69 1013.5
20260507183928 60 322 4.0 7.0 0.00 0.00 0.00 69 1013.3
20260507183828 60 319 3.0 7.0 0.00 0.00 0.00 70 1013.3
20260507183728 60 319 3.0 7.0 0.00 0.00 0.00 70 1013.4
20260507183628 60 318 4.0 7.0 0.00 0.00 0.00 70 1013.3
20260507183528 60 317 4.0 7.0 0.00 0.00 0.00 70 1013.2
20260507183428 60 317 4.0 7.0 0.00 0.00 0.00 71 1013.2
20260507183328 60 317 4.0 7.0 0.00 0.00 0.00 71 1013.3
20260507183228 60 316 4.0 7.0 0.00 0.00 0.00 71 1013.3
20260507183128 60 313 5.0 7.0 0.00 0.00 0.00 72 1013.4
20260507183028 60 313 5.0 7.0 0.00 0.00 0.00 72 1013.4
20260507182928 60 312 5.0 7.0 0.00 0.00 0.00 72 1013.4
20260507182828 60 311 5.0 7.0 0.00 0.00 0.00 73 1013.4
20260507182728 59 309 5.0 7.0 0.00 0.00 0.00 73 1013.5
20260507182628 59 306 4.0 7.0 0.00 0.00 0.00 75 1013.4
20260507182528 59 305 4.0 7.0 0.00 0.00 0.00 75 1013.3
20260507182428 59 303 4.0 7.0 0.00 0.00 0.00 75 1013.4
20260507182328 59 300 4.0 7.0 0.00 0.00 0.00 75 1013.5
20260507182228 59 298 4.0 7.0 0.00 0.00 0.00 75 1013.4
20260507182128 59 299 5.0 7.0 0.00 0.00 0.00 76 1013.4
20260507182028 59 297 4.0 7.0 0.00 0.00 0.00 76 1013.5
20260507181928 59 297 5.0 7.0 0.00 0.00 0.00 76 1013.4
20260507181828 59 298 4.0 6.0 0.00 0.00 0.00 77 1013.5
20260507181728 59 300 4.0 6.0 0.00 0.00 0.00 77 1013.4
20260507181628 60 303 2.0 4.0 0.00 0.00 0.00 77 1013.4
20260507181528 60 305 2.0 4.0 0.00 0.00 0.00 76 1013.6
20260507181428 60 307 2.0 4.0 0.00 0.00 0.00 76 1013.4
20260507181328 60 310 4.0 4.0 0.00 0.00 0.00 75 1013.4
20260507181228 60 310 4.0 4.0 0.00 0.00 0.00 75 1013.5
20260507181128 60 311 4.0 4.0 0.00 0.00 0.00 75 1013.6
20260507181028 60 311 3.0 4.0 0.00 0.00 0.00 75 1013.4
20260507180928 60 312 4.0 4.0 0.00 0.00 0.00 74 1013.4
20260507180828 60 312 4.0 4.0 0.00 0.00 0.00 74 1013.4
20260507180728 61 311 2.0 4.0 0.00 0.00 0.00 73 1013.5
20260507180628 61 310 3.0 4.0 0.00 0.00 0.00 73 1013.4
20260507180528 61 307 4.0 4.0 0.00 0.00 0.00 71 1013.4
20260507180428 61 304 2.0 4.0 0.00 0.00 0.00 70 1013.4
20260507180328 61 301 2.0 4.0 0.00 0.00 0.00 70 1013.2
20260507180229 61 302 2.0 4.0 0.00 0.00 0.00 70 1013.5
20260507180128 61 300 2.0 4.0 0.00 0.00 0.00 69 1013.4
20260507180028 61 299 2.0 4.0 0.00 0.00 0.00 69 1013.4
20260507175928 61 298 3.0 4.0 0.00 0.00 0.00 69 1013.5
20260507175828 62 295 2.0 4.0 0.00 0.00 0.00 69 1013.6
20260507175728 61 294 3.0 4.0 0.00 0.00 0.00 68 1013.5
20260507175628 61 292 3.0 4.0 0.00 0.00 0.00 68 1013.5
20260507175528 62 292 2.0 4.0 0.00 0.00 0.00 68 1013.7
20260507175428 62 292 2.0 2.0 0.00 0.00 0.00 68 1013.5
20260507175328 62 291 2.0 2.0 0.00 0.00 0.00 68 1013.4
20260507175228 62 287 2.0 2.0 0.00 0.00 0.00 68 1013.4
20260507175128 62 280 2.0 2.0 0.00 0.00 0.00 68 1013.6
20260507175028 62 272 1.0 2.0 0.00 0.00 0.00 67 1013.5
20260507174928 62 261 1.0 2.0 0.00 0.00 0.00 67 1013.4
20260507174828 62 251 1.0 2.0 0.00 0.00 0.00 67 1013.5
20260507174728 62 239 1.0 2.0 0.00 0.00 0.00 67 1013.4
20260507174628 62 226 1.0 2.0 0.00 0.00 0.00 67 1013.7
20260507174528 62 218 1.0 2.0 0.00 0.00 0.00 67 1013.3
20260507174428 62 209 1.0 2.0 0.00 0.00 0.00 66 1013.4
20260507174328 62 203 0.0 2.0 0.00 0.00 0.00 66 1013.6
20260507174228 62 197 2.0 2.0 0.00 0.00 0.00 65 1013.3
20260507174128 63 192 1.0 2.0 0.00 0.00 0.00 65 1013.4
20260507174029 63 187 2.0 2.0 0.00 0.00 0.00 65 1013.4
20260507173928 62 182 2.0 2.0 0.00 0.00 0.00 64 1013.4
20260507173828 62 176 2.0 2.0 0.00 0.00 0.00 64 1013.5
20260507173728 62 172 2.0 2.0 0.00 0.00 0.00 64 1013.5
20260507173628 62 167 2.0 2.0 0.00 0.00 0.00 64 1013.3
20260507173528 62 161 2.0 2.0 0.00 0.00 0.00 64 1013.3
20260507173428 63 155 1.0 2.0 0.00 0.00 0.00 64 1013.4
20260507173328 63 153 1.0 2.0 0.00 0.00 0.00 64 1013.4
20260507173228 63 150 1.0 4.0 0.00 0.00 0.00 64 1013.2
20260507173128 63 149 2.0 4.0 0.00 0.00 0.00 63 1013.4
20260507173028 62 149 2.0 4.0 0.00 0.00 0.00 63 1013.4
20260507172928 62 149 2.0 4.0 0.00 0.00 0.00 64 1013.3
20260507172828 63 150 2.0 4.0 0.00 0.00 0.00 64 1013.4
20260507172728 63 148 1.0 4.0 0.00 0.00 0.00 64 1013.1
20260507172628 63 148 1.0 4.0 0.00 0.00 0.00 64 1013.4
20260507172528 63 144 2.0 4.0 0.00 0.00 0.00 64 1013.2
20260507172428 63 141 2.0 4.0 0.00 0.00 0.00 64 1013.4
20260507172328 63 140 2.0 4.0 0.00 0.00 0.00 63 1013.3
20260507172228 63 140 2.0 4.0 0.00 0.00 0.00 64 1013.4
20260507172128 63 140 2.0 4.0 0.00 0.00 0.00 64 1013.1
20260507172028 63 136 2.0 4.0 0.00 0.00 0.00 64 1013.2
20260507171928 63 132 2.0 4.0 0.00 0.00 0.00 64 1013.3
20260507171828 63 126 2.0 4.0 0.00 0.00 0.00 64 1013.1
20260507171728 63 124 2.0 4.0 0.00 0.00 0.00 64 1013.2
20260507171628 63 121 1.0 4.0 0.00 0.00 0.00 64 1013.0
20260507171528 63 123 2.0 4.0 0.00 0.00 0.00 64 1013.2
20260507171428 63 120 2.0 4.0 0.00 0.00 0.00 64 1013.1
20260507171328 63 117 2.0 4.0 0.00 0.00 0.00 64 1013.2
20260507171228 63 117 2.0 4.0 0.00 0.00 0.00 63 1012.9
20260507171128 63 114 2.0 4.0 0.00 0.00 0.00 64 1013.2
20260507171028 63 113 2.0 4.0 0.00 0.00 0.00 64 1013.0
20260507170928 63 114 2.0 4.0 0.00 0.00 0.00 64 1013.2
20260507170828 63 115 2.0 4.0 0.00 0.00 0.00 64 1013.0
20260507170728 63 114 2.0 4.0 0.00 0.00 0.00 64 1013.0
20260507170628 63 114 2.0 4.0 0.00 0.00 0.00 64 1012.9
20260507170528 63 115 3.0 4.0 0.00 0.00 0.00 64 1012.8
20260507170428 63 117 3.0 4.0 0.00 0.00 0.00 63 1012.9
20260507170328 63 118 2.0 4.0 0.00 0.00 0.00 63 1013.0
20260507165928 63 118 2.0 4.0 0.00 0.00 0.00 64 1013.0
20260507165828 63 122 2.0 4.0 0.00 0.00 0.00 64 1013.0
20260507165728 63 125 2.0 4.0 0.00 0.00 0.00 64 1013.0
20260507165628 63 127 2.0 4.0 0.00 0.00 0.00 64 1012.8
20260507165528 63 126 1.0 4.0 0.00 0.00 0.00 64 1012.9
20260507165428 63 126 1.0 4.0 0.00 0.00 0.00 65 1012.9
20260507165328 63 126 0.0 4.0 0.00 0.00 0.00 65 1012.8
20260507165228 63 128 2.0 4.0 0.00 0.00 0.00 64 1013.1
20260507165128 63 126 2.0 4.0 0.00 0.00 0.00 64 1012.9
20260507165028 63 127 2.0 4.0 0.00 0.00 0.00 64 1013.1
20260507164928 63 126 4.0 4.0 0.00 0.00 0.00 63 1013.0
20260507164828 63 124 3.0 4.0 0.00 0.00 0.00 64 1012.8
20260507164728 63 123 1.0 4.0 0.00 0.00 0.00 65 1013.2
20260507164628 63 121 1.0 4.0 0.00 0.00 0.00 64 1013.2
20260507164528 63 123 2.0 4.0 0.00 0.00 0.00 64 1013.0
20260507164428 63 126 2.0 4.0 0.00 0.00 0.00 64 1013.1
20260507164328 63 128 2.0 4.0 0.00 0.00 0.00 64 1013.0
20260507164228 63 130 2.0 4.0 0.00 0.00 0.00 64 1013.1
20260507164128 63 131 2.0 4.0 0.00 0.00 0.00 64 1013.0
20260507164028 63 129 2.0 4.0 0.00 0.00 0.00 64 1013.0
20260507163928 63 131 3.0 4.0 0.00 0.00 0.00 64 1013.0
20260507163828 63 131 2.0 4.0 0.00 0.00 0.00 64 1012.9
20260507163728 63 130 2.0 4.0 0.00 0.00 0.00 65 1012.9
20260507163628 63 126 3.0 4.0 0.00 0.00 0.00 65 1013.0
20260507163528 62 124 2.0 4.0 0.00 0.00 0.00 65 1013.0
20260507163428 62 120 3.0 4.0 0.00 0.00 0.00 66 1012.8
20260507163328 63 119 2.0 4.0 0.00 0.00 0.00 66 1013.3
20260507163228 63 114 3.0 4.0 0.00 0.00 0.00 67 1013.0
20260507163128 63 113 2.0 4.0 0.00 0.00 0.00 67 1013.1
20260507163028 63 113 3.0 4.0 0.00 0.00 0.00 66 1012.8
20260507162928 63 110 4.0 4.0 0.00 0.00 0.00 66 1013.0
20260507162828 63 108 4.0 4.0 0.00 0.00 0.00 66 1013.0
20260507162728 63 107 2.0 4.0 0.00 0.00 0.00 67 1013.0
20260507162628 63 108 2.0 4.0 0.00 0.00 0.00 67 1012.9
20260507162528 63 108 2.0 4.0 0.00 0.00 0.00 67 1013.1
20260507162428 63 109 2.0 4.0 0.00 0.00 0.00 67 1012.9
20260507162328 63 110 1.0 4.0 0.00 0.00 0.00 67 1013.1
20260507162228 63 110 2.0 4.0 0.00 0.00 0.00 67 1013.0
20260507162128 63 111 3.0 4.0 0.00 0.00 0.00 67 1012.9
20260507162028 63 111 2.0 2.0 0.00 0.00 0.00 68 1013.0
20260507161928 63 112 2.0 2.0 0.00 0.00 0.00 68 1013.2
20260507161828 63 115 2.0 2.0 0.00 0.00 0.00 68 1013.1
20260507161728 63 114 1.0 2.0 0.00 0.00 0.00 68 1013.1
20260507161628 63 114 1.0 2.0 0.00 0.00 0.00 68 1013.1
20260507161528 63 117 2.0 2.0 0.00 0.00 0.00 68 1013.1
20260507161428 63 119 2.0 4.0 0.00 0.00 0.00 68 1013.1
20260507161328 63 123 1.0 4.0 0.00 0.00 0.00 69 1013.3
20260507161228 63 127 1.0 4.0 0.00 0.00 0.00 68 1013.3
20260507161128 63 130 1.0 4.0 0.00 0.00 0.00 68 1013.2
20260507161028 63 134 1.0 4.0 0.00 0.00 0.00 68 1013.2
20260507160928 63 137 0.0 4.0 0.00 0.00 0.00 69 1013.3
20260507160828 63 141 1.0 4.0 0.00 0.00 0.00 69 1013.1
20260507160728 63 148 1.0 4.0 0.00 0.00 0.00 68 1013.2
20260507160628 63 151 2.0 4.0 0.00 0.00 0.00 69 1012.9
20260507160528 63 151 2.0 4.0 0.00 0.00 0.00 68 1013.0
20260507160428 62 154 3.0 4.0 0.00 0.00 0.00 68 1013.1
20260507160328 63 152 3.0 4.0 0.00 0.00 0.00 68 1013.0
20260507160228 62 152 3.0 4.0 0.00 0.00 0.00 68 1013.0
20260507160128 63 151 3.0 4.0 0.00 0.00 0.00 68 1013.1
20260507160030 63 150 3.0 4.0 0.00 0.00 0.00 68 1013.3
20260507155928 63 149 4.0 4.0 0.00 0.00 0.00 68 1013.2
20260507155828 63 150 2.0 4.0 0.00 0.00 0.00 68 1013.2
20260507155728 63 145 2.0 4.0 0.00 0.00 0.00 69 1013.3
20260507155628 63 145 2.0 4.0 0.00 0.00 0.00 68 1013.3
20260507155528 63 148 2.0 4.0 0.00 0.00 0.00 68 1013.1
20260507155428 63 148 2.0 4.0 0.00 0.00 0.00 68 1013.1
20260507155328 63 152 1.0 4.0 0.00 0.00 0.00 68 1013.3
20260507155228 63 158 1.0 4.0 0.00 0.00 0.00 68 1013.1
20260507155128 63 162 1.0 4.0 0.00 0.00 0.00 68 1013.1
20260507155028 63 163 1.0 4.0 0.00 0.00 0.00 68 1013.3
20260507154928 63 162 1.0 4.0 0.00 0.00 0.00 68 1013.3
20260507154828 63 164 2.0 4.0 0.00 0.00 0.00 67 1013.3
20260507154728 63 166 1.0 4.0 0.00 0.00 0.00 67 1013.3
20260507154628 62 168 2.0 4.0 0.00 0.00 0.00 68 1013.2
20260507154528 63 170 2.0 4.0 0.00 0.00 0.00 69 1013.4
20260507154428 63 173 2.0 4.0 0.00 0.00 0.00 68 1013.2
20260507154329 63 174 2.0 4.0 0.00 0.00 0.00 68 1013.1
20260507154228 63 170 4.0 4.0 0.00 0.00 0.00 69 1013.2
20260507154128 63 169 3.0 4.0 0.00 0.00 0.00 69 1013.3
20260507154047 63 171 2.0 4.0 0.00 0.00 0.00 69 1013.2
20260507154028 63 171 2.0 4.0 0.00 0.00 0.00 69 1013.2
20260507154012 63 174 3.0 4.0 0.00 0.00 0.00 69 1013.2
20260507153928 63 174 3.0 4.0 0.00 0.00 0.00 69 1013.2
20260507153859 63 170 3.0 4.0 0.00 0.00 0.00 68 1013.3
20260507153833 63 166 2.0 4.0 0.00 0.00 0.00 68 1013.3
20260507153828 63 170 3.0 4.0 0.00 0.00 0.00 68 1013.3
20260507153733 63 158 2.0 4.0 0.00 0.00 0.00 68 1013.4
20260507153728 63 166 2.0 4.0 0.00 0.00 0.00 68 1013.3
20260507153651 63 157 3.0 4.0 0.00 0.00 0.00 68 1013.0
20260507153628 63 161 2.0 4.0 0.00 0.00 0.00 68 1013.1
20260507153528 63 158 2.0 4.0 0.00 0.00 0.00 68 1013.4
20260507153519 63 156 2.0 4.0 0.00 0.00 0.00 68 1013.1
20260507153436 63 156 4.0 4.0 0.00 0.00 0.00 68 1013.2
20260507153428 63 157 3.0 4.0 0.00 0.00 0.00 68 1013.0
20260507153332 63 150 2.0 4.0 0.00 0.00 0.00 68 1012.9
20260507153328 63 156 2.0 4.0 0.00 0.00 0.00 68 1013.1
20260507153254 63 146 2.0 4.0 0.00 0.00 0.00 68 1013.2
20260507153228 63 156 4.0 4.0 0.00 0.00 0.00 68 1013.2
20260507153128 63 153 2.0 4.0 0.00 0.00 0.00 68 1012.9
20260507153108 63 147 2.0 4.0 0.00 0.00 0.00 68 1013.1
20260507153028 63 150 2.0 4.0 0.00 0.00 0.00 68 1012.9
20260507152954 63 153 2.0 4.0 0.00 0.00 0.00 68 1013.2
20260507152928 63 146 2.0 4.0 0.00 0.00 0.00 68 1013.2
20260507152828 63 147 2.0 4.0 0.00 0.00 0.00 68 1013.1
20260507152728 63 147 4.0 4.0 0.00 0.00 0.00 68 1013.1
20260507152628 63 153 2.0 4.0 0.00 0.00 0.00 68 1013.2
20260507152528 63 154 2.0 4.0 0.00 0.00 0.00 69 1013.1
20260507152428 63 153 3.0 4.0 0.00 0.00 0.00 69 1013.1
20260507152328 63 149 2.0 4.0 0.00 0.00 0.00 68 1013.1
20260507152228 63 157 2.0 4.0 0.00 0.00 0.00 68 1013.2
20260507152128 63 161 2.0 4.0 0.00 0.00 0.00 68 1013.2
20260507152112 63 168 2.0 6.0 0.00 0.00 0.00 68 1013.1
20260507152028 63 160 2.0 4.0 0.00 0.00 0.00 68 1013.2
20260507151928 63 161 2.0 4.0 0.00 0.00 0.00 68 1013.0
20260507151828 63 168 2.0 6.0 0.00 0.00 0.00 68 1013.1
20260507151727 63 176 3.0 6.0 0.00 0.00 0.00 68 1013.1
20260507151628 63 175 2.0 6.0 0.00 0.00 0.00 68 1013.2
20260507151528 63 177 2.0 6.0 0.00 0.00 0.00 67 1013.0
20260507151428 63 180 2.0 6.0 0.00 0.00 0.00 67 1013.2
20260507151328 63 184 3.0 6.0 0.00 0.00 0.00 68 1013.1
20260507151228 63 181 3.0 6.0 0.00 0.00 0.00 68 1013.1
20260507151128 63 181 4.0 6.0 0.00 0.00 0.00 68 1013.0
20260507151028 63 188 4.0 6.0 0.00 0.00 0.00 67 1013.2
20260507150927 63 191 4.0 6.0 0.00 0.00 0.00 67 1013.2
20260507150828 63 186 3.0 6.0 0.00 0.00 0.00 68 1012.9
20260507150728 63 184 3.0 6.0 0.00 0.00 0.00 67 1013.2
20260507150628 63 185 3.0 7.0 0.00 0.00 0.00 67 1013.1
20260507150528 63 186 4.0 7.0 0.00 0.00 0.00 68 1013.0
20260507150428 63 189 4.0 7.0 0.00 0.00 0.00 68 1013.3
20260507150328 63 191 4.0 7.0 0.00 0.00 0.00 68 1013.1
20260507150228 63 193 2.0 7.0 0.00 0.00 0.00 68 1013.0
20260507150128 63 193 2.0 7.0 0.00 0.00 0.00 68 1013.2
20260507150028 63 191 4.0 7.0 0.00 0.00 0.00 68 1013.1
20260507145928 63 191 4.0 7.0 0.00 0.00 0.00 68 1013.1
20260507145827 63 190 3.0 7.0 0.00 0.00 0.00 69 1013.0
20260507145728 63 191 4.0 9.0 0.00 0.00 0.00 69 1013.1
20260507145628 63 192 5.0 9.0 0.00 0.00 0.00 69 1013.2
20260507145528 63 191 4.0 9.0 0.00 0.00 0.00 69 1013.2
20260507145428 63 190 2.0 9.0 0.00 0.00 0.00 69 1013.1
20260507145328 63 190 4.0 9.0 0.00 0.00 0.00 69 1013.0
20260507145228 63 188 4.0 9.0 0.00 0.00 0.00 69 1013.3
20260507145128 63 191 4.0 9.0 0.00 0.00 0.00 69 1013.1
20260507145028 63 192 4.0 9.0 0.00 0.00 0.00 69 1013.1
20260507144927 63 192 5.0 9.0 0.00 0.00 0.00 69 1013.2
20260507144828 63 194 5.0 9.0 0.00 0.00 0.00 69 1013.2
20260507144727 62 193 7.0 9.0 0.00 0.00 0.00 69 1013.1
20260507144628 63 190 4.0 9.0 0.00 0.00 0.00 69 1013.2
20260507144528 63 188 4.0 9.0 0.00 0.00 0.00 69 1013.2
20260507144428 63 184 5.0 9.0 0.00 0.00 0.00 68 1013.1
20260507144328 63 182 5.0 9.0 0.00 0.00 0.00 68 1013.3
20260507144228 63 180 6.0 9.0 0.00 0.00 0.00 68 1013.3
20260507144128 63 175 5.0 9.0 0.00 0.00 0.00 68 1013.2
20260507144028 63 170 5.0 9.0 0.00 0.00 0.00 68 1013.3
20260507143928 63 167 6.0 9.0 0.00 0.00 0.00 67 1013.2
20260507143828 63 161 6.0 9.0 0.00 0.00 0.00 67 1013.1
20260507143728 63 159 7.0 9.0 0.00 0.00 0.00 67 1013.2
20260507143628 63 155 5.0 8.0 0.00 0.00 0.00 67 1013.2
20260507143528 63 150 7.0 8.0 0.00 0.00 0.00 67 1013.0
20260507143428 63 149 6.0 8.0 0.00 0.00 0.00 66 1013.1
20260507143328 64 144 7.0 8.0 0.00 0.00 0.00 66 1013.1
20260507143228 64 140 4.0 8.0 0.00 0.00 0.00 65 1013.0
20260507143128 63 144 7.0 8.0 0.00 0.00 0.00 63 1013.1
20260507143028 63 146 7.0 8.0 0.00 0.00 0.00 64 1013.2
20260507142928 64 146 5.0 8.0 0.00 0.00 0.00 64 1013.1
20260507142828 64 148 5.0 8.0 0.00 0.00 0.00 64 1013.1
20260507142728 64 151 3.0 9.0 0.00 0.00 0.00 64 1013.1
20260507142628 64 156 6.0 9.0 0.00 0.00 0.00 63 1013.2
20260507142528 64 157 3.0 9.0 0.00 0.00 0.00 64 1013.2
20260507142428 64 158 4.0 9.0 0.00 0.00 0.00 63 1013.1
20260507142328 64 162 5.0 9.0 0.00 0.00 0.00 63 1013.1
20260507142227 64 168 6.0 9.0 0.00 0.00 0.00 63 1013.2
20260507142128 64 169 5.0 9.0 0.00 0.00 0.00 63 1013.1
20260507142028 64 174 4.0 9.0 0.00 0.00 0.00 62 1013.2
20260507141928 64 180 6.0 9.0 0.00 0.00 0.00 62 1013.2
20260507141828 64 182 5.0 9.0 0.00 0.00 0.00 63 1013.2
20260507141728 64 185 6.0 8.0 0.00 0.00 0.00 63 1013.2
20260507141627 64 184 5.0 7.0 0.00 0.00 0.00 63 1013.3
20260507141528 64 181 4.0 7.0 0.00 0.00 0.00 63 1013.4
20260507141428 64 181 4.0 7.0 0.00 0.00 0.00 63 1013.3
20260507141327 64 179 4.0 7.0 0.00 0.00 0.00 63 1013.1
20260507141228 64 172 4.0 7.0 0.00 0.00 0.00 62 1013.3
20260507141128 64 170 4.0 7.0 0.00 0.00 0.00 62 1013.3
20260507141028 64 164 4.0 7.0 0.00 0.00 0.00 62 1013.2
20260507140928 64 159 2.0 7.0 0.00 0.00 0.00 62 1013.4
20260507140828 64 157 3.0 7.0 0.00 0.00 0.00 62 1013.3
20260507140727 64 152 4.0 7.0 0.00 0.00 0.00 62 1013.3
20260507140627 64 150 5.0 7.0 0.00 0.00 0.00 62 1013.3
20260507140528 64 149 4.0 8.0 0.00 0.00 0.00 62 1013.3
20260507140428 64 149 4.0 8.0 0.00 0.00 0.00 62 1013.4
20260507140328 64 149 4.0 8.0 0.00 0.00 0.00 62 1013.3
20260507140227 64 151 3.0 8.0 0.00 0.00 0.00 63 1013.2
20260507140128 64 153 4.0 8.0 0.00 0.00 0.00 62 1013.3
20260507140028 64 155 2.0 8.0 0.00 0.00 0.00 62 1013.2
20260507135927 64 152 2.0 8.0 0.00 0.00 0.00 62 1013.3
20260507135827 64 152 3.0 8.0 0.00 0.00 0.00 62 1013.2
20260507135728 64 151 5.0 8.0 0.00 0.00 0.00 62 1013.3
20260507135627 64 151 5.0 8.0 0.00 0.00 0.00 62 1013.1
20260507135528 64 149 7.0 8.0 0.00 0.00 0.00 61 1013.4
20260507135428 64 148 4.0 7.0 0.00 0.00 0.00 62 1013.3
20260507135327 64 142 2.0 7.0 0.00 0.00 0.00 63 1013.3
20260507135228 64 138 3.0 7.0 0.00 0.00 0.00 62 1013.2
20260507135128 64 131 3.0 7.0 0.00 0.00 0.00 62 1013.1
20260507135027 64 125 3.0 7.0 0.00 0.00 0.00 62 1013.4
20260507134927 64 120 2.0 7.0 0.00 0.00 0.00 62 1013.4
20260507134828 64 117 3.0 7.0 0.00 0.00 0.00 61 1013.1
20260507134728 64 116 4.0 7.0 0.00 0.00 0.00 61 1013.2
20260507134627 64 116 3.0 9.0 0.00 0.00 0.00 61 1013.2
20260507134528 64 116 3.0 9.0 0.00 0.00 0.00 61 1013.2
20260507134428 64 115 4.0 9.0 0.00 0.00 0.00 61 1013.4
20260507134328 64 117 4.0 9.0 0.00 0.00 0.00 60 1013.1
20260507134228 64 119 4.0 9.0 0.00 0.00 0.00 61 1013.3
20260507134128 64 124 4.0 9.0 0.00 0.00 0.00 61 1013.2
20260507134028 64 128 2.0 9.0 0.00 0.00 0.00 61 1013.2
20260507133928 65 133 2.0 9.0 0.00 0.00 0.00 62 1013.2
20260507133828 64 137 4.0 9.0 0.00 0.00 0.00 61 1013.2
20260507133727 64 143 5.0 9.0 0.00 0.00 0.00 62 1013.2
20260507133628 64 143 6.0 11.0 0.00 0.00 0.00 62 1013.4
20260507133528 65 150 4.0 11.0 0.00 0.00 0.00 63 1013.3
20260507133427 65 155 3.0 11.0 0.00 0.00 0.00 63 1013.3
20260507133328 64 154 5.0 11.0 0.00 0.00 0.00 62 1013.2
20260507133227 65 154 4.0 11.0 0.00 0.00 0.00 62 1013.1
20260507133127 65 153 4.0 11.0 0.00 0.00 0.00 62 1013.4
20260507133028 64 154 4.0 11.0 0.00 0.00 0.00 62 1013.4
20260507132928 64 153 6.0 11.0 0.00 0.00 0.00 62 1013.2
20260507132828 65 153 5.0 11.0 0.00 0.00 0.00 62 1013.3
20260507132728 64 153 6.0 11.0 0.00 0.00 0.00 61 1013.4
20260507132628 64 156 6.0 11.0 0.00 0.00 0.00 62 1013.1
20260507132527 65 155 6.0 11.0 0.00 0.00 0.00 62 1013.2
20260507132428 65 155 6.0 11.0 0.00 0.00 0.00 62 1013.3
20260507132327 64 159 8.0 11.0 0.00 0.00 0.00 61 1013.3
20260507132228 65 162 7.0 9.0 0.00 0.00 0.00 61 1013.3
20260507132128 65 159 6.0 9.0 0.00 0.00 0.00 62 1013.1
20260507132027 65 156 6.0 9.0 0.00 0.00 0.00 62 1013.4
20260507131928 65 158 4.0 8.0 0.00 0.00 0.00 61 1013.2
20260507131828 65 155 5.0 8.0 0.00 0.00 0.00 62 1013.3
20260507131727 65 154 4.0 8.0 0.00 0.00 0.00 62 1013.4
20260507131629 65 149 4.0 8.0 0.00 0.00 0.00 62 1013.4
20260507131527 65 144 4.0 8.0 0.00 0.00 0.00 62 1013.3
20260507131428 65 134 3.0 8.0 0.00 0.00 0.00 63 1013.4
20260507131327 65 128 3.0 8.0 0.00 0.00 0.00 62 1013.3
20260507131227 65 126 4.0 8.0 0.00 0.00 0.00 62 1013.5
20260507131128 65 127 5.0 8.0 0.00 0.00 0.00 61 1013.4
20260507131027 65 128 3.0 8.0 0.00 0.00 0.00 63 1013.4
20260507130927 65 125 3.0 8.0 0.00 0.00 0.00 62 1013.3
20260507130828 65 123 4.0 8.0 0.00 0.00 0.00 62 1013.4
20260507130727 65 120 3.0 8.0 0.00 0.00 0.00 62 1013.5
20260507130628 65 119 4.0 8.0 0.00 0.00 0.00 62 1013.5
20260507130528 65 116 4.0 8.0 0.00 0.00 0.00 62 1013.6
20260507130428 65 116 5.0 8.0 0.00 0.00 0.00 62 1013.5
20260507130328 65 119 5.0 9.0 0.00 0.00 0.00 62 1013.6
20260507130228 65 118 5.0 9.0 0.00 0.00 0.00 62 1013.7
20260507130128 65 116 7.0 9.0 0.00 0.00 0.00 61 1013.5
20260507130028 65 116 4.0 9.0 0.00 0.00 0.00 62 1013.3
20260507125928 65 112 4.0 9.0 0.00 0.00 0.00 62 1013.3
20260507125827 65 113 3.0 9.0 0.00 0.00 0.00 62 1013.3
20260507125727 65 113 4.0 9.0 0.00 0.00 0.00 61 1013.4
20260507125628 65 114 6.0 9.0 0.00 0.00 0.00 61 1013.5
20260507125528 65 117 5.0 9.0 0.00 0.00 0.00 62 1013.3
20260507125427 65 119 4.0 9.0 0.00 0.00 0.00 63 1013.5
20260507125327 65 117 4.0 9.0 0.00 0.00 0.00 62 1013.7
20260507125228 65 116 6.0 9.0 0.00 0.00 0.00 62 1013.6
20260507125129 65 113 6.0 9.0 0.00 0.00 0.00 62 1013.4
20260507125027 65 113 5.0 8.0 0.00 0.00 0.00 62 1013.4
20260507124927 65 117 4.0 8.0 0.00 0.00 0.00 63 1013.5
20260507124828 65 118 3.0 8.0 0.00 0.00 0.00 63 1013.5
20260507124727 65 116 3.0 8.0 0.00 0.00 0.00 64 1013.5
20260507124627 65 115 5.0 8.0 0.00 0.00 0.00 63 1013.5
20260507124528 65 108 4.0 8.0 0.00 0.00 0.00 64 1013.5
20260507124428 65 104 5.0 8.0 0.00 0.00 0.00 63 1013.6
20260507124327 65 98 4.0 9.0 0.00 0.00 0.00 63 1013.7
20260507124227 65 95 5.0 9.0 0.00 0.00 0.00 63 1013.5
20260507124127 65 93 5.0 9.0 0.00 0.00 0.00 63 1013.5
20260507124027 65 86 4.0 9.0 0.00 0.00 0.00 63 1013.4
20260507123928 65 81 4.0 9.0 0.00 0.00 0.00 64 1013.7
20260507123827 65 78 4.0 9.0 0.00 0.00 0.00 64 1013.6
20260507123728 65 76 4.0 9.0 0.00 0.00 0.00 64 1013.4
20260507123628 64 72 6.0 9.0 0.00 0.00 0.00 64 1013.5
20260507123527 64 71 6.0 9.0 0.00 0.00 0.00 64 1013.3
20260507123428 64 72 5.0 9.0 0.00 0.00 0.00 65 1013.5
20260507123327 64 75 5.0 9.0 0.00 0.00 0.00 65 1013.4
20260507123228 64 73 6.0 9.0 0.00 0.00 0.00 65 1013.5
20260507123127 65 74 5.0 9.0 0.00 0.00 0.00 64 1013.4
20260507123028 65 77 4.0 9.0 0.00 0.00 0.00 64 1013.3
20260507122927 64 80 6.0 9.0 0.00 0.00 0.00 64 1013.5
20260507122827 65 78 4.0 7.0 0.00 0.00 0.00 64 1013.5
20260507122728 65 79 4.0 7.0 0.00 0.00 0.00 65 1013.4
20260507122627 65 80 4.0 7.0 0.00 0.00 0.00 65 1013.5
20260507122528 65 78 2.0 7.0 0.00 0.00 0.00 65 1013.3
20260507122428 65 74 3.0 8.0 0.00 0.00 0.00 65 1013.7
20260507122328 65 72 2.0 8.0 0.00 0.00 0.00 64 1013.7
20260507122228 65 71 3.0 8.0 0.00 0.00 0.00 64 1013.6
20260507122127 64 66 5.0 8.0 0.00 0.00 0.00 63 1013.6
20260507122027 65 63 4.0 8.0 0.00 0.00 0.00 63 1013.5
20260507121928 65 63 3.0 8.0 0.00 0.00 0.00 63 1013.5
20260507121827 65 64 2.0 8.0 0.00 0.00 0.00 63 1013.5
20260507121727 65 64 3.0 8.0 0.00 0.00 0.00 62 1013.5
20260507121627 65 65 4.0 8.0 0.00 0.00 0.00 62 1013.5
20260507121527 65 66 4.0 8.0 0.00 0.00 0.00 63 1013.6
20260507121428 65 63 4.0 8.0 0.00 0.00 0.00 63 1013.5
20260507121327 65 63 5.0 9.0 0.00 0.00 0.00 63 1013.5
20260507121227 65 64 2.0 9.0 0.00 0.00 0.00 63 1013.7
20260507121128 65 66 2.0 11.0 0.00 0.00 0.00 64 1013.5
20260507121028 65 67 6.0 11.0 0.00 0.00 0.00 63 1013.5
20260507120927 65 65 5.0 11.0 0.00 0.00 0.00 63 1013.2
20260507120827 65 60 6.0 14.0 0.00 0.00 0.00 63 1013.5
20260507120728 65 60 7.0 14.0 0.00 0.00 0.00 63 1013.2
20260507120627 65 60 5.0 14.0 0.00 0.00 0.00 63 1013.4
20260507120527 65 62 6.0 14.0 0.00 0.00 0.00 63 1013.5
20260507120428 65 66 7.0 14.0 0.00 0.00 0.00 63 1013.5
20260507120328 65 65 5.0 14.0 0.00 0.00 0.00 63 1013.4
20260507120227 65 65 5.0 14.0 0.00 0.00 0.00 64 1013.4
20260507120127 65 66 6.0 14.0 0.00 0.00 0.00 63 1013.3
20260507120028 65 66 8.0 14.0 0.00 0.00 0.00 63 1013.4
20260507115927 65 68 7.0 14.0 0.00 0.00 0.00 63 1013.4
20260507115827 65 74 8.0 11.0 0.00 0.00 0.00 62 1013.3
20260507115727 65 74 6.0 11.0 0.00 0.00 0.00 63 1013.5
20260507115628 66 75 5.0 11.0 0.00 0.00 0.00 63 1013.0
20260507115528 66 72 4.0 11.0 0.00 0.00 0.00 63 1013.4
20260507115427 66 69 4.0 11.0 0.00 0.00 0.00 64 1013.2
20260507115328 66 69 6.0 11.0 0.00 0.00 0.00 64 1013.4
20260507115227 66 70 4.0 11.0 0.00 0.00 0.00 64 1013.5
20260507115128 66 69 5.0 11.0 0.00 0.00 0.00 65 1013.5
20260507115027 65 72 7.0 11.0 0.00 0.00 0.00 64 1013.4
20260507114928 65 74 8.0 11.0 0.00 0.00 0.00 63 1013.6
20260507114828 65 73 7.0 11.0 0.00 0.00 0.00 64 1013.3
20260507114727 65 74 4.0 11.0 0.00 0.00 0.00 65 1013.3
20260507114628 65 73 4.0 11.0 0.00 0.00 0.00 65 1013.4
20260507114527 65 74 4.0 11.0 0.00 0.00 0.00 65 1013.4
20260507114427 65 74 6.0 13.0 0.00 0.00 0.00 64 1013.4
20260507114328 65 76 6.0 13.0 0.00 0.00 0.00 65 1013.4
20260507114228 65 77 8.0 13.0 0.00 0.00 0.00 64 1013.2
20260507114127 65 76 5.0 13.0 0.00 0.00 0.00 64 1013.2
20260507114027 65 76 7.0 13.0 0.00 0.00 0.00 63 1013.1
20260507113928 65 74 6.0 13.0 0.00 0.00 0.00 64 1013.1
20260507113828 66 76 6.0 13.0 0.00 0.00 0.00 64 1013.1
20260507113727 66 77 8.0 13.0 0.00 0.00 0.00 64 1013.4
20260507113628 65 77 7.0 13.0 0.00 0.00 0.00 64 1013.2
20260507113527 66 79 8.0 13.0 0.00 0.00 0.00 64 1013.2
20260507113427 66 80 9.0 13.0 0.00 0.00 0.00 64 1013.3
20260507113327 66 82 7.0 11.0 0.00 0.00 0.00 65 1013.3
20260507113228 65 84 7.0 11.0 0.00 0.00 0.00 64 1013.2
20260507113127 65 88 8.0 11.0 0.00 0.00 0.00 64 1013.3
20260507113027 65 87 8.0 11.0 0.00 0.00 0.00 64 1013.3
20260507112928 65 89 8.0 9.0 0.00 0.00 0.00 64 1013.3
20260507112828 65 89 7.0 9.0 0.00 0.00 0.00 64 1013.2
20260507112728 66 89 5.0 9.0 0.00 0.00 0.00 66 1013.4
20260507112627 65 91 6.0 9.0 0.00 0.00 0.00 65 1013.4
20260507112527 65 90 5.0 9.0 0.00 0.00 0.00 65 1013.3
20260507112427 66 91 6.0 9.0 0.00 0.00 0.00 66 1013.3
20260507112328 66 94 7.0 11.0 0.00 0.00 0.00 66 1013.3
20260507112227 65 94 4.0 11.0 0.00 0.00 0.00 65 1013.3
20260507112127 65 94 5.0 11.0 0.00 0.00 0.00 65 1013.3
20260507112027 66 94 5.0 11.0 0.00 0.00 0.00 66 1013.3
20260507111927 65 96 6.0 11.0 0.00 0.00 0.00 65 1013.4
20260507111828 65 96 5.0 11.0 0.00 0.00 0.00 65 1013.2
20260507111727 65 97 5.0 11.0 0.00 0.00 0.00 65 1013.4
20260507111627 65 96 4.0 11.0 0.00 0.00 0.00 65 1013.5
20260507111528 65 97 7.0 11.0 0.00 0.00 0.00 64 1013.4
20260507111427 66 98 4.0 11.0 0.00 0.00 0.00 66 1013.4
20260507111328 65 93 8.0 11.0 0.00 0.00 0.00 65 1013.3
20260507111227 66 93 6.0 11.0 0.00 0.00 0.00 65 1013.4
20260507111127 66 93 5.0 11.0 0.00 0.00 0.00 65 1013.3
20260507111027 66 95 5.0 11.0 0.00 0.00 0.00 65 1013.4
20260507110927 66 92 4.0 11.0 0.00 0.00 0.00 66 1013.4
20260507110828 66 91 4.0 11.0 0.00 0.00 0.00 65 1013.3
20260507110727 67 90 3.0 11.0 0.00 0.00 0.00 66 1013.2
20260507110627 66 88 5.0 11.0 0.00 0.00 0.00 66 1013.4
20260507110527 66 85 8.0 11.0 0.00 0.00 0.00 65 1013.3
20260507110427 66 82 8.0 11.0 0.00 0.00 0.00 65 1013.4
20260507110327 66 81 5.0 11.0 0.00 0.00 0.00 66 1013.4
20260507110227 66 78 5.0 11.0 0.00 0.00 0.00 65 1013.4
20260507110127 66 72 5.0 11.0 0.00 0.00 0.00 66 1013.3
20260507110027 66 67 8.0 11.0 0.00 0.00 0.00 66 1013.5
20260507105928 66 65 6.0 11.0 0.00 0.00 0.00 66 1013.3
20260507105827 66 64 4.0 11.0 0.00 0.00 0.00 66 1013.3
20260507105728 65 63 5.0 11.0 0.00 0.00 0.00 66 1013.3
20260507105627 65 63 7.0 11.0 0.00 0.00 0.00 65 1013.6
20260507105527 66 64 8.0 11.0 0.00 0.00 0.00 66 1013.3
20260507105427 66 64 5.0 9.0 0.00 0.00 0.00 66 1013.5
20260507105327 66 66 5.0 8.0 0.00 0.00 0.00 65 1013.4
20260507105227 66 66 5.0 8.0 0.00 0.00 0.00 66 1013.6
20260507105127 66 70 4.0 8.0 0.00 0.00 0.00 66 1013.5
20260507105028 66 77 3.0 8.0 0.00 0.00 0.00 65 1013.5
20260507104927 67 74 4.0 8.0 0.00 0.00 0.00 66 1013.4
20260507104827 66 75 3.0 8.0 0.00 0.00 0.00 65 1013.4
20260507104727 66 76 4.0 8.0 0.00 0.00 0.00 65 1013.4
20260507104628 66 78 4.0 8.0 0.00 0.00 0.00 65 1013.5
20260507104527 66 78 6.0 8.0 0.00 0.00 0.00 65 1013.4
20260507104427 66 79 5.0 8.0 0.00 0.00 0.00 65 1013.5
20260507104327 67 79 4.0 8.0 0.00 0.00 0.00 66 1013.7
20260507104227 66 81 4.0 8.0 0.00 0.00 0.00 65 1013.6
20260507104127 66 83 3.0 8.0 0.00 0.00 0.00 65 1013.4
20260507104028 66 84 4.0 8.0 0.00 0.00 0.00 65 1013.5
20260507103927 66 91 4.0 8.0 0.00 0.00 0.00 66 1013.5
20260507103827 66 95 4.0 8.0 0.00 0.00 0.00 66 1013.5
20260507103728 66 96 4.0 8.0 0.00 0.00 0.00 66 1013.8
20260507103627 66 99 3.0 8.0 0.00 0.00 0.00 66 1013.6
20260507103527 66 103 6.0 8.0 0.00 0.00 0.00 66 1013.7
20260507103427 66 107 4.0 7.0 0.00 0.00 0.00 67 1013.5
20260507103328 65 109 4.0 7.0 0.00 0.00 0.00 66 1013.7
20260507103227 66 114 4.0 7.0 0.00 0.00 0.00 66 1013.6
20260507103127 66 111 4.0 6.0 0.00 0.00 0.00 65 1013.8
20260507103027 66 113 4.0 6.0 0.00 0.00 0.00 65 1013.8
20260507102927 66 104 4.0 6.0 0.00 0.00 0.00 64 1013.9
20260507102827 66 107 2.0 4.0 0.00 0.00 0.00 64 1013.8
20260507102728 66 114 2.0 4.0 0.00 0.00 0.00 63 1013.7
20260507102627 66 118 2.0 4.0 0.00 0.00 0.00 63 1013.8
20260507102527 66 118 1.0 4.0 0.00 0.00 0.00 64 1013.6
20260507102428 66 120 2.0 4.0 0.00 0.00 0.00 64 1013.6
20260507102327 66 122 1.0 4.0 0.00 0.00 0.00 64 1013.7
20260507102227 66 123 2.0 4.0 0.00 0.00 0.00 63 1013.5
20260507102128 66 124 2.0 4.0 0.00 0.00 0.00 64 1013.8
20260507102027 66 127 2.0 4.0 0.00 0.00 0.00 64 1013.6
20260507101927 66 131 2.0 6.0 0.00 0.00 0.00 64 1013.6
20260507101827 65 134 3.0 6.0 0.00 0.00 0.00 64 1013.6
20260507101727 65 132 3.0 6.0 0.00 0.00 0.00 64 1013.5
20260507101627 66 130 2.0 6.0 0.00 0.00 0.00 64 1013.6
20260507101527 66 129 2.0 6.0 0.00 0.00 0.00 64 1013.3
20260507101427 66 127 1.0 6.0 0.00 0.00 0.00 65 1013.6
20260507101327 66 123 2.0 6.0 0.00 0.00 0.00 65 1013.5
20260507101227 65 118 2.0 6.0 0.00 0.00 0.00 65 1013.3
20260507101127 65 112 3.0 6.0 0.00 0.00 0.00 64 1013.4
20260507101027 65 106 4.0 6.0 0.00 0.00 0.00 64 1013.3
20260507100927 66 98 2.0 4.0 0.00 0.00 0.00 65 1013.5
20260507100827 66 92 2.0 4.0 0.00 0.00 0.00 64 1013.4
20260507100727 66 79 2.0 4.0 0.00 0.00 0.00 65 1013.5
20260507100627 66 77 1.0 4.0 0.00 0.00 0.00 65 1013.3
20260507100527 66 75 1.0 4.0 0.00 0.00 0.00 65 1013.5
20260507100427 66 69 2.0 4.0 0.00 0.00 0.00 65 1013.3
20260507100328 66 66 2.0 6.0 0.00 0.00 0.00 65 1013.3
20260507100227 66 63 2.0 8.0 0.00 0.00 0.00 65 1013.4
20260507100127 66 64 2.0 11.0 0.00 0.00 0.00 65 1013.3
20260507100027 66 64 2.0 11.0 0.00 0.00 0.00 64 1013.4
20260507095927 66 63 1.0 11.0 0.00 0.00 0.00 65 1013.3
20260507095827 66 62 2.0 11.0 0.00 0.00 0.00 64 1013.3
20260507095728 66 64 2.0 11.0 0.00 0.00 0.00 65 1013.4
20260507095627 66 65 2.0 11.0 0.00 0.00 0.00 65 1013.2
20260507095527 65 65 2.0 11.0 0.00 0.00 0.00 65 1013.6
20260507095427 65 65 4.0 11.0 0.00 0.00 0.00 65 1013.3
20260507095327 65 67 4.0 11.0 0.00 0.00 0.00 65 1013.4
20260507095227 65 69 6.0 11.0 0.00 0.00 0.00 65 1013.2
20260507095127 65 71 7.0 11.0 0.00 0.00 0.00 65 1013.3
20260507095028 65 76 4.0 8.0 0.00 0.00 0.00 65 1013.4
20260507094927 66 83 5.0 8.0 0.00 0.00 0.00 66 1013.4
20260507094828 66 87 4.0 8.0 0.00 0.00 0.00 66 1013.3
20260507094727 66 90 4.0 8.0 0.00 0.00 0.00 66 1013.5
20260507094627 65 94 3.0 8.0 0.00 0.00 0.00 65 1013.3
20260507094527 65 93 4.0 9.0 0.00 0.00 0.00 64 1013.4
20260507094427 66 93 3.0 9.0 0.00 0.00 0.00 65 1013.5
20260507094327 66 94 2.0 11.0 0.00 0.00 0.00 65 1013.4
20260507094227 66 91 2.0 11.0 0.00 0.00 0.00 65 1013.5
20260507094127 65 87 2.0 11.0 0.00 0.00 0.00 65 1013.4
20260507094028 65 84 5.0 11.0 0.00 0.00 0.00 64 1013.6
20260507093927 66 80 4.0 11.0 0.00 0.00 0.00 65 1013.4
20260507093827 65 77 6.0 11.0 0.00 0.00 0.00 65 1013.4
20260507093727 65 73 6.0 11.0 0.00 0.00 0.00 66 1013.5
20260507093627 65 69 5.0 11.0 0.00 0.00 0.00 67 1013.6
20260507093527 64 68 8.0 11.0 0.00 0.00 0.00 67 1013.5
20260507093427 65 66 8.0 11.0 0.00 0.00 0.00 68 1013.6
20260507093327 65 65 8.0 11.0 0.00 0.00 0.00 68 1013.4
20260507093227 65 65 7.0 11.0 0.00 0.00 0.00 68 1013.5
20260507093127 65 65 7.0 11.0 0.00 0.00 0.00 68 1013.4
20260507093027 65 63 4.0 11.0 0.00 0.00 0.00 69 1013.4
20260507092927 65 62 7.0 11.0 0.00 0.00 0.00 68 1013.3
20260507092827 64 60 8.0 11.0 0.00 0.00 0.00 67 1013.2
20260507092727 65 59 9.0 11.0 0.00 0.00 0.00 67 1013.4
20260507092627 65 53 7.0 11.0 0.00 0.00 0.00 67 1013.2
20260507092527 65 52 8.0 11.0 0.00 0.00 0.00 66 1013.4
20260507092428 65 52 6.0 11.0 0.00 0.00 0.00 67 1013.3
20260507092327 66 53 5.0 11.0 0.00 0.00 0.00 68 1013.3
20260507092227 65 52 6.0 11.0 0.00 0.00 0.00 68 1013.4
20260507092127 65 48 6.0 11.0 0.00 0.00 0.00 67 1013.3
20260507092027 65 43 6.0 11.0 0.00 0.00 0.00 68 1013.5
20260507091927 65 44 7.0 11.0 0.00 0.00 0.00 68 1013.4
20260507091827 65 44 2.0 11.0 0.00 0.00 0.00 68 1013.5
20260507091727 65 44 6.0 11.0 0.00 0.00 0.00 68 1013.6
20260507091627 65 48 6.0 11.0 0.00 0.00 0.00 69 1013.4
20260507091527 64 45 7.0 11.0 0.00 0.00 0.00 68 1013.4
20260507091427 65 38 8.0 11.0 0.00 0.00 0.00 69 1013.5
20260507091327 65 34 8.0 11.0 0.00 0.00 0.00 68 1013.5
20260507091227 65 32 6.0 11.0 0.00 0.00 0.00 69 1013.4
20260507091127 65 31 5.0 14.0 0.00 0.00 0.00 68 1013.3
20260507091027 65 37 8.0 14.0 0.00 0.00 0.00 68 1013.3
20260507090927 65 38 8.0 14.0 0.00 0.00 0.00 68 1013.1
20260507090827 65 41 7.0 14.0 0.00 0.00 0.00 68 1013.3
20260507090727 65 42 6.0 14.0 0.00 0.00 0.00 69 1013.3
20260507090627 65 43 4.0 14.0 0.00 0.00 0.00 68 1013.5
20260507090527 65 48 5.0 14.0 0.00 0.00 0.00 68 1013.5
20260507090427 65 54 8.0 14.0 0.00 0.00 0.00 68 1013.1
20260507090327 65 57 7.0 14.0 0.00 0.00 0.00 68 1013.2
20260507090227 65 59 8.0 14.0 0.00 0.00 0.00 68 1013.4
20260507090127 65 66 8.0 11.0 0.00 0.00 0.00 68 1013.2
20260507090027 65 64 4.0 11.0 0.00 0.00 0.00 68 1013.1
20260507085927 65 66 6.0 11.0 0.00 0.00 0.00 68 1013.2
20260507085827 64 65 7.0 11.0 0.00 0.00 0.00 68 1013.3
20260507085727 65 67 5.0 11.0 0.00 0.00 0.00 70 1013.3
20260507085627 64 66 7.0 11.0 0.00 0.00 0.00 69 1013.2
20260507085527 64 65 8.0 11.0 0.00 0.00 0.00 69 1013.2
20260507085427 64 65 6.0 11.0 0.00 0.00 0.00 70 1013.3
20260507085327 64 63 7.0 11.0 0.00 0.00 0.00 70 1013.4
20260507085227 64 61 8.0 11.0 0.00 0.00 0.00 69 1013.4
20260507085127 64 58 9.0 11.0 0.00 0.00 0.00 69 1013.3
20260507085027 64 59 8.0 11.0 0.00 0.00 0.00 69 1013.3
20260507084927 64 54 4.0 9.0 0.00 0.00 0.00 70 1013.3
20260507084827 64 53 6.0 9.0 0.00 0.00 0.00 69 1013.1
20260507084727 64 49 7.0 9.0 0.00 0.00 0.00 69 1013.0
20260507084627 64 51 5.0 9.0 0.00 0.00 0.00 69 1013.3
20260507084527 64 52 4.0 9.0 0.00 0.00 0.00 69 1013.4
20260507084427 64 51 4.0 9.0 0.00 0.00 0.00 68 1013.2
20260507084327 64 52 5.0 9.0 0.00 0.00 0.00 68 1013.3
20260507084227 64 55 4.0 9.0 0.00 0.00 0.00 68 1013.2
20260507084127 64 58 4.0 11.0 0.00 0.00 0.00 68 1013.4
20260507084027 64 59 4.0 11.0 0.00 0.00 0.00 68 1013.3
20260507083927 64 61 4.0 11.0 0.00 0.00 0.00 69 1013.5
20260507083827 64 62 4.0 11.0 0.00 0.00 0.00 69 1013.3
20260507083727 64 62 4.0 11.0 0.00 0.00 0.00 68 1013.4
20260507083627 64 62 5.0 11.0 0.00 0.00 0.00 68 1013.3
20260507083527 64 62 4.0 11.0 0.00 0.00 0.00 69 1013.3
20260507083427 64 63 5.0 11.0 0.00 0.00 0.00 68 1013.5
20260507083327 64 65 4.0 11.0 0.00 0.00 0.00 68 1013.4
20260507083227 64 65 5.0 11.0 0.00 0.00 0.00 68 1013.4
20260507083127 65 65 5.0 9.0 0.00 0.00 0.00 67 1013.5
20260507083027 65 67 4.0 8.0 0.00 0.00 0.00 68 1013.4
20260507082928 65 68 4.0 8.0 0.00 0.00 0.00 67 1013.4
20260507082827 65 72 4.0 8.0 0.00 0.00 0.00 66 1013.4
20260507082727 65 72 4.0 8.0 0.00 0.00 0.00 66 1013.6
20260507082627 65 71 4.0 8.0 0.00 0.00 0.00 65 1013.4
20260507082527 66 72 3.0 8.0 0.00 0.00 0.00 66 1013.5
20260507082427 66 71 3.0 8.0 0.00 0.00 0.00 66 1013.4
20260507082327 65 57 4.0 8.0 0.00 0.00 0.00 65 1013.5
20260507082227 65 338 4.0 8.0 0.00 0.00 0.00 64 1013.4
20260507082127 65 272 4.0 8.0 0.00 0.00 0.00 64 1013.5
20260507082027 66 267 4.0 7.0 0.00 0.00 0.00 64 1013.5
20260507081927 66 275 2.0 4.0 0.00 0.00 0.00 63 1013.3
20260507081827 66 284 1.0 4.0 0.00 0.00 0.00 63 1013.6
20260507081727 65 282 1.0 2.0 0.00 0.00 0.00 63 1013.6
20260507081627 65 288 1.0 2.0 0.00 0.00 0.00 63 1013.5
20260507081527 65 291 1.0 2.0 0.00 0.00 0.00 62 1013.5
20260507081427 65 290 1.0 2.0 0.00 0.00 0.00 63 1013.6
20260507081327 65 293 2.0 2.0 0.00 0.00 0.00 63 1013.4
20260507081227 65 292 1.0 2.0 0.00 0.00 0.00 63 1013.5
20260507081127 66 292 1.0 2.0 0.00 0.00 0.00 64 1013.5
20260507081027 65 294 2.0 2.0 0.00 0.00 0.00 64 1013.4
20260507080927 65 298 1.0 2.0 0.00 0.00 0.00 64 1013.5
20260507080827 65 302 0.0 2.0 0.00 0.00 0.00 64 1013.5
20260507080727 65 305 1.0 2.0 0.00 0.00 0.00 64 1013.2
20260507080627 65 308 2.0 2.0 0.00 0.00 0.00 64 1013.2
20260507080527 65 309 1.0 2.0 0.00 0.00 0.00 64 1013.4
20260507080427 65 315 0.0 4.0 0.00 0.00 0.00 64 1013.3
20260507080327 65 346 1.0 6.0 0.00 0.00 0.00 64 1013.3
20260507080227 66 27 1.0 6.0 0.00 0.00 0.00 65 1012.9
20260507080127 65 66 2.0 6.0 0.00 0.00 0.00 64 1013.4
20260507080027 65 98 2.0 6.0 0.00 0.00 0.00 63 1013.2
20260507075927 65 119 2.0 6.0 0.00 0.00 0.00 63 1013.2
20260507075827 65 122 2.0 6.0 0.00 0.00 0.00 63 1013.3
20260507075727 66 115 2.0 6.0 0.00 0.00 0.00 62 1013.4
20260507075627 66 112 1.0 6.0 0.00 0.00 0.00 62 1013.2
20260507075527 66 113 2.0 6.0 0.00 0.00 0.00 62 1013.1
20260507075427 66 114 2.0 6.0 0.00 0.00 0.00 62 1013.1
20260507075327 66 111 1.0 6.0 0.00 0.00 0.00 65 1013.2
20260507075227 66 106 1.0 6.0 0.00 0.00 0.00 65 1013.3
20260507075127 65 103 3.0 6.0 0.00 0.00 0.00 65 1013.3
20260507075027 66 98 4.0 6.0 0.00 0.00 0.00 65 1013.1
20260507074927 65 93 2.0 6.0 0.00 0.00 0.00 64 1013.1
20260507074827 65 92 3.0 6.0 0.00 0.00 0.00 64 1013.0
20260507074727 65 94 4.0 6.0 0.00 0.00 0.00 63 1013.0
20260507074627 65 87 2.0 4.0 0.00 0.00 0.00 64 1013.3
20260507074527 65 82 3.0 4.0 0.00 0.00 0.00 63 1013.2
20260507074427 66 76 3.0 4.0 0.00 0.00 0.00 64 1013.2
20260507074327 66 79 3.0 4.0 0.00 0.00 0.00 64 1013.1
20260507074227 66 76 3.0 4.0 0.00 0.00 0.00 64 1013.0
20260507074127 66 73 2.0 4.0 0.00 0.00 0.00 65 1013.2
20260507074027 66 71 2.0 4.0 0.00 0.00 0.00 65 1013.0
20260507073927 66 70 2.0 4.0 0.00 0.00 0.00 66 1013.4
20260507073827 65 71 2.0 4.0 0.00 0.00 0.00 66 1013.2
20260507073727 65 76 2.0 4.0 0.00 0.00 0.00 66 1013.3
20260507073627 65 89 3.0 4.0 0.00 0.00 0.00 66 1013.3
20260507073527 65 98 2.0 4.0 0.00 0.00 0.00 65 1013.4
20260507073427 65 101 2.0 4.0 0.00 0.00 0.00 65 1013.2
20260507073327 65 102 2.0 4.0 0.00 0.00 0.00 65 1013.2
20260507073227 66 123 2.0 4.0 0.00 0.00 0.00 65 1013.2
20260507073127 66 156 2.0 4.0 0.00 0.00 0.00 64 1013.2
20260507073027 66 177 0.0 4.0 0.00 0.00 0.00 65 1013.4
20260507072927 66 207 0.0 4.0 0.00 0.00 0.00 65 1013.3
20260507072827 65 253 1.0 4.0 0.00 0.00 0.00 65 1013.3
20260507072728 65 266 2.0 4.0 0.00 0.00 0.00 65 1013.2
20260507072627 66 273 2.0 4.0 0.00 0.00 0.00 66 1013.3
20260507072527 66 277 0.0 4.0 0.00 0.00 0.00 67 1013.3
20260507072427 65 277 1.0 4.0 0.00 0.00 0.00 67 1013.3
20260507072327 65 278 1.0 4.0 0.00 0.00 0.00 68 1013.2
20260507072227 65 281 2.0 4.0 0.00 0.00 0.00 68 1013.3
20260507072127 64 282 2.0 4.0 0.00 0.00 0.00 68 1013.3
20260507072027 64 280 2.0 4.0 0.00 0.00 0.00 67 1013.3
20260507071927 64 276 3.0 4.0 0.00 0.00 0.00 67 1013.2
20260507071827 64 269 1.0 2.0 0.00 0.00 0.00 67 1013.2
20260507071727 65 263 2.0 4.0 0.00 0.00 0.00 68 1013.2
20260507071627 65 257 1.0 4.0 0.00 0.00 0.00 68 1013.2
20260507071527 65 259 1.0 4.0 0.00 0.00 0.00 68 1013.3
20260507071427 65 262 1.0 4.0 0.00 0.00 0.00 69 1013.4
20260507071327 65 264 2.0 4.0 0.00 0.00 0.00 69 1013.3
20260507071227 64 265 1.0 4.0 0.00 0.00 0.00 68 1013.4
20260507071127 65 261 1.0 4.0 0.00 0.00 0.00 68 1013.4
20260507071027 64 260 0.0 4.0 0.00 0.00 0.00 67 1013.4
20260507070927 65 254 1.0 4.0 0.00 0.00 0.00 67 1013.3
20260507070827 65 256 1.0 4.0 0.00 0.00 0.00 67 1013.1
20260507070727 65 264 2.0 4.0 0.00 0.00 0.00 67 1013.2
20260507070627 65 274 1.0 2.0 0.00 0.00 0.00 67 1013.5
20260507070527 65 272 2.0 2.0 0.00 0.00 0.00 68 1013.2
20260507070427 65 260 1.0 4.0 0.00 0.00 0.00 68 1013.3
20260507070327 65 259 1.0 4.0 0.00 0.00 0.00 68 1013.3
20260507070227 65 264 2.0 6.0 0.00 0.00 0.00 68 1013.4
20260507070127 64 275 1.0 6.0 0.00 0.00 0.00 69 1013.4
20260507070027 64 280 1.0 6.0 0.00 0.00 0.00 69 1013.1
20260507065927 64 285 1.0 6.0 0.00 0.00 0.00 70 1013.3
20260507065827 63 287 1.0 6.0 0.00 0.00 0.00 70 1013.3
20260507065727 63 286 2.0 6.0 0.00 0.00 0.00 70 1013.3
20260507065627 64 288 1.0 6.0 0.00 0.00 0.00 71 1013.2
20260507065527 63 289 2.0 6.0 0.00 0.00 0.00 71 1013.2
20260507065427 62 295 2.0 6.0 0.00 0.00 0.00 72 1013.5
20260507065327 62 296 2.0 6.0 0.00 0.00 0.00 71 1013.4
20260507065227 62 297 4.0 6.0 0.00 0.00 0.00 71 1013.5
20260507065127 62 298 3.0 4.0 0.00 0.00 0.00 71 1013.4
20260507065027 62 300 4.0 4.0 0.00 0.00 0.00 71 1013.4
20260507064927 63 302 2.0 4.0 0.00 0.00 0.00 72 1013.5
20260507064827 62 304 3.0 4.0 0.00 0.00 0.00 71 1013.4
20260507064727 62 305 2.0 4.0 0.00 0.00 0.00 71 1013.5
20260507064627 62 306 2.0 2.0 0.00 0.00 0.00 71 1013.6
20260507064527 62 310 2.0 2.0 0.00 0.00 0.00 72 1013.7
20260507064427 63 314 2.0 2.0 0.00 0.00 0.00 73 1013.7
20260507064327 63 315 0.0 2.0 0.00 0.00 0.00 73 1013.4
20260507064227 62 317 0.0 2.0 0.00 0.00 0.00 74 1013.6
20260507064127 61 319 2.0 2.0 0.00 0.00 0.00 74 1013.5
20260507064027 61 320 1.0 4.0 0.00 0.00 0.00 74 1013.5
20260507063927 61 320 1.0 4.0 0.00 0.00 0.00 74 1013.6
20260507063827 62 323 0.0 4.0 0.00 0.00 0.00 74 1013.4
20260507063727 62 324 0.0 4.0 0.00 0.00 0.00 74 1013.4
20260507063627 61 324 0.0 4.0 0.00 0.00 0.00 74 1013.6
20260507063527 61 322 2.0 4.0 0.00 0.00 0.00 74 1013.6
20260507063427 61 320 0.0 4.0 0.00 0.00 0.00 74 1013.4
20260507063327 61 320 2.0 4.0 0.00 0.00 0.00 74 1013.5
20260507063227 61 320 1.0 4.0 0.00 0.00 0.00 74 1013.2
20260507063127 61 322 2.0 4.0 0.00 0.00 0.00 74 1013.3
20260507063027 61 327 2.0 4.0 0.00 0.00 0.00 74 1013.5
20260507062927 61 332 1.0 2.0 0.00 0.00 0.00 74 1013.4
20260507062827 61 340 0.0 2.0 0.00 0.00 0.00 75 1013.6
20260507062727 61 348 0.0 2.0 0.00 0.00 0.00 75 1013.4
20260507062627 61 346 0.0 2.0 0.00 0.00 0.00 75 1013.5
20260507062527 61 346 1.0 2.0 0.00 0.00 0.00 74 1013.4
20260507062427 61 347 1.0 4.0 0.00 0.00 0.00 75 1013.4
20260507062327 61 351 1.0 4.0 0.00 0.00 0.00 74 1013.5
20260507062227 61 354 0.0 4.0 0.00 0.00 0.00 75 1013.3
20260507062127 61 354 0.0 4.0 0.00 0.00 0.00 74 1013.5
20260507062027 61 353 1.0 4.0 0.00 0.00 0.00 74 1013.4
20260507061927 61 354 1.0 4.0 0.00 0.00 0.00 74 1013.3
20260507061827 60 350 1.0 4.0 0.00 0.00 0.00 74 1013.5
20260507061727 60 341 2.0 4.0 0.00 0.00 0.00 74 1013.4
20260507061627 60 335 2.0 4.0 0.00 0.00 0.00 75 1013.4
20260507061527 60 331 1.0 4.0 0.00 0.00 0.00 74 1013.3
20260507061428 60 327 2.0 4.0 0.00 0.00 0.00 74 1013.3
20260507061327 60 315 2.0 4.0 0.00 0.00 0.00 74 1013.5
20260507061227 60 303 0.0 4.0 0.00 0.00 0.00 75 1013.4
20260507061127 60 311 0.0 4.0 0.00 0.00 0.00 75 1013.4
20260507061027 60 318 0.0 4.0 0.00 0.00 0.00 75 1013.3
20260507060927 60 319 0.0 4.0 0.00 0.00 0.00 75 1013.4
20260507060827 60 319 1.0 4.0 0.00 0.00 0.00 75 1013.4
20260507060727 60 320 1.0 4.0 0.00 0.00 0.00 75 1013.5
20260507060627 60 322 2.0 4.0 0.00 0.00 0.00 75 1013.3
20260507060527 60 324 2.0 4.0 0.00 0.00 0.00 75 1013.5
20260507060427 60 326 2.0 4.0 0.00 0.00 0.00 75 1013.6
20260507060327 60 329 2.0 4.0 0.00 0.00 0.00 75 1013.7
20260507060227 60 337 2.0 6.0 0.00 0.00 0.00 75 1013.6
20260507060127 60 337 3.0 6.0 0.00 0.00 0.00 74 1013.6
20260507060027 61 338 2.0 6.0 0.00 0.00 0.00 75 1013.5
20260507055927 61 339 2.0 6.0 0.00 0.00 0.00 75 1013.5
20260507055827 61 349 2.0 6.0 0.00 0.00 0.00 74 1013.5
20260507055727 61 358 2.0 6.0 0.00 0.00 0.00 74 1013.3
20260507055627 61 3 1.0 6.0 0.00 0.00 0.00 74 1013.6
20260507055527 60 7 1.0 6.0 0.00 0.00 0.00 74 1013.2
20260507055427 60 9 1.0 6.0 0.00 0.00 0.00 74 1013.1
20260507055327 60 9 1.0 6.0 0.00 0.00 0.00 74 1013.2
20260507055227 60 7 3.0 6.0 0.00 0.00 0.00 74 1013.1
20260507055127 60 8 3.0 6.0 0.00 0.00 0.00 74 1013.2
20260507055027 60 10 2.0 6.0 0.00 0.00 0.00 74 1013.3
20260507054927 60 10 2.0 6.0 0.00 0.00 0.00 74 1013.1
20260507054827 60 8 3.0 6.0 0.00 0.00 0.00 74 1013.3
20260507054727 61 6 2.0 6.0 0.00 0.00 0.00 74 1013.0
20260507054627 60 7 4.0 6.0 0.00 0.00 0.00 74 1013.2
20260507054527 60 9 4.0 6.0 0.00 0.00 0.00 74 1013.1
20260507054427 61 15 4.0 6.0 0.00 0.00 0.00 74 1013.0
20260507054327 61 19 2.0 6.0 0.00 0.00 0.00 74 1013.1
20260507054227 60 25 3.0 6.0 0.00 0.00 0.00 74 1013.2
20260507054127 60 28 2.0 6.0 0.00 0.00 0.00 74 1013.0
20260507054027 60 28 3.0 6.0 0.00 0.00 0.00 74 1013.0
20260507053927 60 36 2.0 6.0 0.00 0.00 0.00 74 1013.1
20260507053827 60 38 2.0 6.0 0.00 0.00 0.00 74 1013.1
20260507053727 60 38 2.0 6.0 0.00 0.00 0.00 73 1013.2
20260507053627 60 38 2.0 6.0 0.00 0.00 0.00 73 1013.1
20260507053527 60 39 3.0 6.0 0.00 0.00 0.00 73 1013.0
20260507053427 60 39 2.0 6.0 0.00 0.00 0.00 73 1013.0
20260507053327 60 38 2.0 6.0 0.00 0.00 0.00 73 1013.1
20260507053227 60 40 2.0 6.0 0.00 0.00 0.00 73 1013.1
20260507053127 60 37 4.0 6.0 0.00 0.00 0.00 73 1013.0
20260507053027 60 39 2.0 4.0 0.00 0.00 0.00 72 1012.9
20260507052927 60 29 2.0 4.0 0.00 0.00 0.00 72 1012.8
20260507052827 60 23 2.0 4.0 0.00 0.00 0.00 72 1013.1
20260507052727 60 21 2.0 4.0 0.00 0.00 0.00 72 1012.9
20260507052627 60 17 2.0 4.0 0.00 0.00 0.00 71 1013.1
20260507052527 60 13 2.0 4.0 0.00 0.00 0.00 71 1013.1
20260507052427 60 10 2.0 4.0 0.00 0.00 0.00 70 1012.9
20260507052327 60 7 1.0 4.0 0.00 0.00 0.00 70 1013.0
20260507052227 60 5 2.0 4.0 0.00 0.00 0.00 70 1012.8
20260507052127 60 11 1.0 4.0 0.00 0.00 0.00 70 1013.0
20260507052027 60 14 2.0 4.0 0.00 0.00 0.00 69 1012.9
20260507051927 60 14 2.0 4.0 0.00 0.00 0.00 69 1012.8
20260507051827 60 18 2.0 4.0 0.00 0.00 0.00 69 1012.8
20260507051727 60 24 2.0 4.0 0.00 0.00 0.00 69 1012.7
20260507051627 60 25 2.0 4.0 0.00 0.00 0.00 69 1012.8
20260507051527 60 27 2.0 8.0 0.00 0.00 0.00 68 1012.7
20260507051427 60 29 2.0 8.0 0.00 0.00 0.00 68 1012.8
20260507051327 60 31 2.0 8.0 0.00 0.00 0.00 68 1012.8
20260507051227 60 33 2.0 8.0 0.00 0.00 0.00 68 1012.7
20260507051127 61 29 2.0 8.0 0.00 0.00 0.00 67 1012.8
20260507051027 60 26 1.0 8.0 0.00 0.00 0.00 66 1012.6
20260507050927 60 28 1.0 8.0 0.00 0.00 0.00 66 1012.7
20260507050827 61 23 2.0 8.0 0.00 0.00 0.00 65 1012.6
20260507050727 61 14 2.0 8.0 0.00 0.00 0.00 65 1012.6
20260507050627 61 9 3.0 8.0 0.00 0.00 0.00 65 1012.9
20260507050527 61 353 2.0 8.0 0.00 0.00 0.00 65 1012.6
20260507050427 61 325 1.0 2.0 0.00 0.00 0.00 64 1012.6
20260507050327 61 317 1.0 2.0 0.00 0.00 0.00 64 1012.7
20260507050227 61 317 0.0 2.0 0.00 0.00 0.00 64 1012.5
20260507050127 61 316 0.0 2.0 0.00 0.00 0.00 64 1012.7
20260507050027 61 319 0.0 2.0 0.00 0.00 0.00 64 1012.6
20260507045927 61 323 0.0 2.0 0.00 0.00 0.00 63 1012.5
20260507045827 61 326 0.0 2.0 0.00 0.00 0.00 63 1012.7
20260507045727 61 331 0.0 2.0 0.00 0.00 0.00 63 1012.5
20260507045627 61 340 1.0 2.0 0.00 0.00 0.00 63 1012.3
20260507045527 61 349 2.0 4.0 0.00 0.00 0.00 63 1012.4
20260507045427 61 358 1.0 4.0 0.00 0.00 0.00 63 1012.4
20260507045327 61 5 1.0 4.0 0.00 0.00 0.00 63 1012.4
20260507045227 61 11 1.0 4.0 0.00 0.00 0.00 63 1012.3
20260507045127 61 16 1.0 4.0 0.00 0.00 0.00 63 1012.3
20260507045027 61 12 1.0 4.0 0.00 0.00 0.00 63 1012.2
20260507044927 61 8 1.0 4.0 0.00 0.00 0.00 62 1012.3
20260507044827 61 5 1.0 4.0 0.00 0.00 0.00 62 1012.3
20260507044727 61 1 2.0 4.0 0.00 0.00 0.00 62 1012.1
20260507044627 61 354 2.0 7.0 0.00 0.00 0.00 61 1012.3
20260507044527 61 350 1.0 7.0 0.00 0.00 0.00 61 1012.1
20260507044427 61 345 2.0 7.0 0.00 0.00 0.00 61 1012.0
20260507044326 61 343 2.0 7.0 0.00 0.00 0.00 61 1012.0
20260507044227 62 340 3.0 7.0 0.00 0.00 0.00 60 1012.2
20260507044127 62 338 3.0 8.0 0.00 0.00 0.00 60 1012.0
20260507044027 62 337 3.0 8.0 0.00 0.00 0.00 60 1012.1
20260507043927 62 336 2.0 8.0 0.00 0.00 0.00 60 1012.1
20260507043827 62 336 2.0 8.0 0.00 0.00 0.00 60 1012.0
20260507043727 62 336 4.0 8.0 0.00 0.00 0.00 60 1012.0
20260507043627 62 334 5.0 8.0 0.00 0.00 0.00 60 1012.0
20260507043527 62 333 4.0 8.0 0.00 0.00 0.00 60 1011.9
20260507043427 62 332 4.0 8.0 0.00 0.00 0.00 60 1012.1
20260507043327 62 330 4.0 8.0 0.00 0.00 0.00 60 1011.9
20260507043227 62 328 4.0 8.0 0.00 0.00 0.00 60 1012.1
20260507043127 62 324 4.0 7.0 0.00 0.00 0.00 61 1012.0
20260507043027 61 322 4.0 6.0 0.00 0.00 0.00 61 1012.0
20260507042927 61 319 4.0 6.0 0.00 0.00 0.00 61 1012.0
20260507042827 61 318 3.0 6.0 0.00 0.00 0.00 61 1012.0
20260507042727 61 316 3.0 6.0 0.00 0.00 0.00 61 1011.7
20260507042627 61 318 4.0 6.0 0.00 0.00 0.00 62 1012.0
20260507042527 61 321 4.0 6.0 0.00 0.00 0.00 62 1011.9
20260507042427 61 324 4.0 6.0 0.00 0.00 0.00 62 1011.9
20260507042327 61 329 2.0 6.0 0.00 0.00 0.00 62 1012.2
20260507042227 61 331 4.0 6.0 0.00 0.00 0.00 61 1012.0
20260507042127 61 333 4.0 6.0 0.00 0.00 0.00 61 1011.9
20260507042027 61 336 2.0 6.0 0.00 0.00 0.00 61 1012.1
20260507041927 61 340 2.0 6.0 0.00 0.00 0.00 61 1012.0
20260507041827 61 344 3.0 6.0 0.00 0.00 0.00 61 1012.0
20260507041727 61 346 4.0 6.0 0.00 0.00 0.00 62 1012.2
20260507041626 61 346 3.0 6.0 0.00 0.00 0.00 62 1012.1
20260507041527 61 344 4.0 6.0 0.00 0.00 0.00 62 1012.0
20260507041427 61 344 2.0 6.0 0.00 0.00 0.00 62 1012.1
20260507041326 61 341 2.0 6.0 0.00 0.00 0.00 62 1012.1
20260507041227 61 341 2.0 7.0 0.00 0.00 0.00 62 1011.9
20260507041127 61 340 3.0 7.0 0.00 0.00 0.00 62 1012.0
20260507041027 61 339 2.0 7.0 0.00 0.00 0.00 62 1012.1
20260507040927 61 337 2.0 7.0 0.00 0.00 0.00 62 1012.1
20260507040826 61 334 2.0 7.0 0.00 0.00 0.00 62 1012.2
20260507040727 61 332 2.0 7.0 0.00 0.00 0.00 61 1012.0
20260507040627 61 331 3.0 7.0 0.00 0.00 0.00 61 1012.1
20260507040526 61 331 3.0 7.0 0.00 0.00 0.00 62 1012.1
20260507040427 61 331 4.0 7.0 0.00 0.00 0.00 61 1012.3
20260507040327 61 329 3.0 7.0 0.00 0.00 0.00 61 1012.1
20260507040227 61 327 4.0 7.0 0.00 0.00 0.00 61 1012.1
20260507040127 61 326 4.0 7.0 0.00 0.00 0.00 61 1011.9
20260507040027 61 327 4.0 7.0 0.00 0.00 0.00 61 1012.0
20260507035927 61 326 4.0 7.0 0.00 0.00 0.00 61 1011.9
20260507035827 61 325 5.0 7.0 0.00 0.00 0.00 61 1011.9
20260507035727 61 325 4.0 7.0 0.00 0.00 0.00 62 1011.9
20260507035627 61 324 4.0 7.0 0.00 0.00 0.00 62 1011.8
20260507035527 61 325 4.0 7.0 0.00 0.00 0.00 62 1011.7
20260507035427 61 322 5.0 7.0 0.00 0.00 0.00 62 1011.9
20260507035326 61 321 4.0 7.0 0.00 0.00 0.00 61 1011.9
20260507035227 61 321 4.0 7.0 0.00 0.00 0.00 61 1011.8
20260507035127 61 319 4.0 7.0 0.00 0.00 0.00 62 1011.8
20260507035027 61 315 4.0 7.0 0.00 0.00 0.00 62 1011.7
20260507034926 61 314 5.0 7.0 0.00 0.00 0.00 62 1011.9
20260507034826 61 314 4.0 7.0 0.00 0.00 0.00 63 1011.8
20260507034727 61 313 4.0 7.0 0.00 0.00 0.00 63 1011.7
20260507034627 60 313 4.0 7.0 0.00 0.00 0.00 63 1011.8
20260507034527 60 313 4.0 7.0 0.00 0.00 0.00 63 1011.8
20260507034426 60 314 4.0 7.0 0.00 0.00 0.00 63 1011.6
20260507034327 60 314 4.0 7.0 0.00 0.00 0.00 64 1011.9
20260507034226 60 314 4.0 7.0 0.00 0.00 0.00 64 1011.6
20260507034127 60 316 4.0 7.0 0.00 0.00 0.00 64 1011.7
20260507034027 60 316 4.0 7.0 0.00 0.00 0.00 64 1011.8
20260507033927 60 317 4.0 7.0 0.00 0.00 0.00 64 1011.7
20260507033827 60 317 5.0 7.0 0.00 0.00 0.00 64 1011.5
20260507033727 60 318 4.0 7.0 0.00 0.00 0.00 64 1011.7
20260507033627 60 316 4.0 7.0 0.00 0.00 0.00 64 1011.7
20260507033527 60 315 4.0 7.0 0.00 0.00 0.00 64 1011.7
20260507033427 60 314 4.0 7.0 0.00 0.00 0.00 64 1011.6
20260507033327 60 314 4.0 7.0 0.00 0.00 0.00 64 1011.7
20260507033227 60 311 4.0 7.0 0.00 0.00 0.00 64 1011.5
20260507033127 60 308 4.0 7.0 0.00 0.00 0.00 64 1011.7
20260507033027 60 306 4.0 7.0 0.00 0.00 0.00 65 1011.5
20260507032926 60 307 2.0 7.0 0.00 0.00 0.00 66 1011.6
20260507032826 60 307 3.0 8.0 0.00 0.00 0.00 66 1011.5
20260507032726 59 305 2.0 8.0 0.00 0.00 0.00 67 1011.4
20260507032627 59 305 2.0 8.0 0.00 0.00 0.00 67 1011.5
20260507032526 60 307 2.0 8.0 0.00 0.00 0.00 66 1011.5
20260507032427 60 309 2.0 8.0 0.00 0.00 0.00 66 1011.5
20260507032327 60 310 2.0 8.0 0.00 0.00 0.00 66 1011.5
20260507032227 60 313 4.0 8.0 0.00 0.00 0.00 66 1011.4
20260507032126 60 315 4.0 8.0 0.00 0.00 0.00 66 1011.4
20260507032027 60 316 6.0 8.0 0.00 0.00 0.00 65 1011.5
20260507031927 60 316 5.0 8.0 0.00 0.00 0.00 65 1011.2
20260507031827 60 316 4.0 7.0 0.00 0.00 0.00 65 1011.4
20260507031727 60 316 4.0 6.0 0.00 0.00 0.00 65 1011.5
20260507031627 60 316 3.0 6.0 0.00 0.00 0.00 65 1011.2
20260507031527 60 315 4.0 6.0 0.00 0.00 0.00 66 1011.5
20260507031427 60 313 4.0 6.0 0.00 0.00 0.00 66 1011.5
20260507031327 60 313 4.0 6.0 0.00 0.00 0.00 66 1011.2
20260507031227 60 313 4.0 6.0 0.00 0.00 0.00 66 1011.4
20260507031127 60 313 5.0 6.0 0.00 0.00 0.00 66 1011.4
20260507031027 60 313 5.0 6.0 0.00 0.00 0.00 66 1011.3
20260507030927 60 313 4.0 6.0 0.00 0.00 0.00 65 1011.3
20260507030827 60 313 4.0 6.0 0.00 0.00 0.00 65 1011.5
20260507030726 60 316 4.0 6.0 0.00 0.00 0.00 65 1011.4
20260507030627 60 318 4.0 6.0 0.00 0.00 0.00 65 1011.5
20260507030528 60 319 3.0 4.0 0.00 0.00 0.00 65 1011.4
20260507030426 60 321 4.0 4.0 0.00 0.00 0.00 64 1011.5
20260507030327 60 323 3.0 4.0 0.00 0.00 0.00 64 1011.2
20260507030227 61 326 3.0 4.0 0.00 0.00 0.00 63 1011.3
20260507030126 61 330 3.0 4.0 0.00 0.00 0.00 63 1011.5
20260507030027 61 333 2.0 4.0 0.00 0.00 0.00 63 1011.3
20260507025927 61 337 2.0 4.0 0.00 0.00 0.00 63 1011.5
20260507025826 61 341 2.0 2.0 0.00 0.00 0.00 63 1011.1
20260507025726 61 338 2.0 2.0 0.00 0.00 0.00 63 1011.3
20260507025627 61 333 2.0 2.0 0.00 0.00 0.00 63 1011.3
20260507025527 61 330 1.0 2.0 0.00 0.00 0.00 63 1011.3
20260507025427 61 330 2.0 2.0 0.00 0.00 0.00 63 1011.2
20260507025327 61 329 1.0 2.0 0.00 0.00 0.00 63 1011.1
20260507025227 61 327 2.0 2.0 0.00 0.00 0.00 63 1011.1
20260507025127 61 326 2.0 2.0 0.00 0.00 0.00 63 1011.2
20260507025027 60 328 1.0 2.0 0.00 0.00 0.00 63 1011.4
20260507024927 60 329 2.0 2.0 0.00 0.00 0.00 64 1011.3
20260507024827 60 327 2.0 2.0 0.00 0.00 0.00 64 1011.4
20260507024727 60 322 2.0 2.0 0.00 0.00 0.00 65 1011.4
20260507024627 60 325 1.0 2.0 0.00 0.00 0.00 65 1011.4
20260507024527 60 324 0.0 2.0 0.00 0.00 0.00 66 1011.4
20260507024426 60 318 0.0 2.0 0.00 0.00 0.00 66 1011.3
20260507024326 60 315 0.0 2.0 0.00 0.00 0.00 67 1011.4
20260507024227 60 312 0.0 2.0 0.00 0.00 0.00 67 1011.4
20260507024127 60 306 0.0 2.0 0.00 0.00 0.00 67 1011.2
20260507024027 60 300 0.0 4.0 0.00 0.00 0.00 67 1011.3
20260507023926 59 297 1.0 4.0 0.00 0.00 0.00 67 1011.5
20260507023827 59 285 1.0 4.0 0.00 0.00 0.00 68 1011.4
20260507023727 59 279 1.0 4.0 0.00 0.00 0.00 68 1011.2
20260507023627 59 273 0.0 4.0 0.00 0.00 0.00 68 1011.3
20260507023526 59 270 0.0 4.0 0.00 0.00 0.00 69 1011.5
20260507023427 59 267 1.0 4.0 0.00 0.00 0.00 69 1011.3
20260507023326 59 263 2.0 4.0 0.00 0.00 0.00 69 1011.5
20260507023227 58 259 2.0 4.0 0.00 0.00 0.00 69 1011.3
20260507023127 58 258 2.0 4.0 0.00 0.00 0.00 69 1011.3
20260507023027 59 253 2.0 4.0 0.00 0.00 0.00 68 1011.2
20260507022926 58 248 2.0 4.0 0.00 0.00 0.00 68 1011.3
20260507022826 59 250 3.0 4.0 0.00 0.00 0.00 68 1011.2
20260507022726 59 251 3.0 4.0 0.00 0.00 0.00 68 1011.3
20260507022626 59 255 2.0 4.0 0.00 0.00 0.00 68 1011.2
20260507022526 59 304 1.0 2.0 0.00 0.00 0.00 68 1011.2
20260507022427 59 55 1.0 2.0 0.00 0.00 0.00 68 1011.3
20260507022327 59 55 1.0 4.0 0.00 0.00 0.00 68 1010.9
20260507022228 59 55 0.0 4.0 0.00 0.00 0.00 68 1011.0
20260507022127 59 54 0.0 4.0 0.00 0.00 0.00 68 1011.1
20260507022027 59 55 0.0 4.0 0.00 0.00 0.00 68 1010.9
20260507021926 59 54 0.0 4.0 0.00 0.00 0.00 67 1010.8
20260507021826 59 52 0.0 4.0 0.00 0.00 0.00 67 1011.0
20260507021727 59 51 0.0 4.0 0.00 0.00 0.00 67 1010.8
20260507021627 59 50 0.0 4.0 0.00 0.00 0.00 67 1010.7
20260507021527 59 47 2.0 4.0 0.00 0.00 0.00 67 1010.8
20260507021427 59 47 2.0 4.0 0.00 0.00 0.00 67 1010.7
20260507021328 59 47 2.0 6.0 0.00 0.00 0.00 67 1010.8
20260507021227 59 40 3.0 6.0 0.00 0.00 0.00 66 1010.7
20260507021127 59 39 3.0 6.0 0.00 0.00 0.00 66 1011.0
20260507021026 59 36 4.0 6.0 0.00 0.00 0.00 66 1010.7
20260507020926 60 33 4.0 6.0 0.00 0.00 0.00 65 1010.8
20260507020827 60 29 4.0 6.0 0.00 0.00 0.00 65 1010.8
20260507020726 60 19 2.0 6.0 0.00 0.00 0.00 65 1010.9
20260507020626 61 1 2.0 6.0 0.00 0.00 0.00 64 1010.8
20260507020527 61 339 2.0 6.0 0.00 0.00 0.00 63 1010.8
20260507020427 61 290 2.0 6.0 0.00 0.00 0.00 63 1010.8
20260507020327 61 263 3.0 6.0 0.00 0.00 0.00 63 1010.9
20260507020226 61 243 0.0 2.0 0.00 0.00 0.00 63 1010.9
20260507020127 61 242 0.0 4.0 0.00 0.00 0.00 63 1011.0
20260507020026 61 242 0.0 4.0 0.00 0.00 0.00 63 1011.0
20260507015927 60 242 0.0 4.0 0.00 0.00 0.00 62 1010.8
20260507015826 60 242 1.0 4.0 0.00 0.00 0.00 62 1010.9
20260507015726 60 243 2.0 4.0 0.00 0.00 0.00 62 1010.9
20260507015627 60 245 2.0 4.0 0.00 0.00 0.00 63 1011.0
20260507015527 60 247 2.0 4.0 0.00 0.00 0.00 63 1011.0
20260507015426 60 248 2.0 4.0 0.00 0.00 0.00 63 1011.1
20260507015326 60 250 1.0 4.0 0.00 0.00 0.00 63 1010.9
20260507015226 60 251 1.0 4.0 0.00 0.00 0.00 63 1010.9
20260507015127 60 252 2.0 4.0 0.00 0.00 0.00 63 1010.9
20260507015027 60 257 2.0 4.0 0.00 0.00 0.00 62 1010.8
20260507014926 60 268 2.0 4.0 0.00 0.00 0.00 63 1010.9
20260507014827 60 280 2.0 2.0 0.00 0.00 0.00 62 1010.9
20260507014727 61 292 1.0 2.0 0.00 0.00 0.00 63 1010.9
20260507014626 61 306 0.0 2.0 0.00 0.00 0.00 62 1010.7
20260507014527 61 332 1.0 2.0 0.00 0.00 0.00 61 1011.1
20260507014426 61 359 1.0 2.0 0.00 0.00 0.00 61 1010.6
20260507014326 61 21 0.0 2.0 0.00 0.00 0.00 61 1010.8
20260507014227 61 35 0.0 2.0 0.00 0.00 0.00 61 1010.7
20260507014126 61 42 0.0 2.0 0.00 0.00 0.00 61 1010.8
20260507014026 61 49 0.0 2.0 0.00 0.00 0.00 61 1010.6
20260507013926 61 54 0.0 2.0 0.00 0.00 0.00 61 1010.8
20260507013826 61 55 0.0 2.0 0.00 0.00 0.00 61 1010.5
20260507013726 61 55 0.0 2.0 0.00 0.00 0.00 61 1010.6
20260507013626 61 60 1.0 2.0 0.00 0.00 0.00 61 1010.5
20260507013526 61 65 1.0 2.0 0.00 0.00 0.00 61 1010.4
20260507013426 61 69 1.0 2.0 0.00 0.00 0.00 61 1010.4
20260507013326 61 71 2.0 2.0 0.00 0.00 0.00 60 1010.5
20260507013226 61 62 2.0 2.0 0.00 0.00 0.00 60 1010.4
20260507013127 61 49 1.0 2.0 0.00 0.00 0.00 60 1010.3
20260507013027 61 41 0.0 2.0 0.00 0.00 0.00 60 1010.4
20260507012926 61 22 0.0 2.0 0.00 0.00 0.00 61 1010.4
20260507012826 61 22 0.0 2.0 0.00 0.00 0.00 61 1010.6
20260507012727 61 13 0.0 2.0 0.00 0.00 0.00 61 1010.5
20260507012626 61 5 0.0 2.0 0.00 0.00 0.00 61 1010.5
20260507012527 61 358 0.0 2.0 0.00 0.00 0.00 61 1010.4
20260507012427 61 354 0.0 2.0 0.00 0.00 0.00 61 1010.5
20260507012326 61 353 0.0 2.0 0.00 0.00 0.00 61 1010.5
20260507012226 60 349 0.0 2.0 0.00 0.00 0.00 61 1010.5
20260507012127 61 347 0.0 2.0 0.00 0.00 0.00 61 1010.6
20260507012026 60 345 1.0 2.0 0.00 0.00 0.00 62 1010.5
20260507011926 60 343 0.0 2.0 0.00 0.00 0.00 62 1010.6
20260507011826 60 343 0.0 2.0 0.00 0.00 0.00 62 1010.4
20260507011727 60 347 0.0 2.0 0.00 0.00 0.00 62 1010.4
20260507011627 60 351 1.0 2.0 0.00 0.00 0.00 62 1010.3
20260507011527 60 354 1.0 2.0 0.00 0.00 0.00 62 1010.6
20260507011426 60 358 2.0 2.0 0.00 0.00 0.00 62 1010.3
20260507011326 60 1 2.0 2.0 0.00 0.00 0.00 62 1010.3
20260507011226 60 7 2.0 4.0 0.00 0.00 0.00 62 1010.2
20260507011126 60 12 2.0 4.0 0.00 0.00 0.00 62 1010.2
20260507011026 60 20 2.0 4.0 0.00 0.00 0.00 62 1010.4
20260507010926 60 25 2.0 4.0 0.00 0.00 0.00 62 1010.2
20260507010827 60 29 1.0 4.0 0.00 0.00 0.00 62 1010.3
20260507010727 60 26 1.0 4.0 0.00 0.00 0.00 62 1010.4
20260507010626 60 25 2.0 4.0 0.00 0.00 0.00 62 1010.3
20260507010526 60 27 2.0 4.0 0.00 0.00 0.00 62 1010.2
20260507010426 60 28 2.0 4.0 0.00 0.00 0.00 63 1010.4
20260507010326 60 29 2.0 4.0 0.00 0.00 0.00 63 1010.0
20260507010226 60 35 2.0 4.0 0.00 0.00 0.00 63 1010.4
20260507010127 60 39 2.0 4.0 0.00 0.00 0.00 63 1010.2
20260507010027 60 41 2.0 4.0 0.00 0.00 0.00 63 1010.5
20260507005926 60 44 2.0 4.0 0.00 0.00 0.00 63 1010.4
20260507005827 60 50 2.0 4.0 0.00 0.00 0.00 63 1010.4
20260507005727 60 54 1.0 4.0 0.00 0.00 0.00 63 1010.4
20260507005626 60 53 2.0 4.0 0.00 0.00 0.00 63 1010.5
20260507005526 60 53 1.0 4.0 0.00 0.00 0.00 63 1010.5
20260507005426 60 54 2.0 6.0 0.00 0.00 0.00 62 1010.3
20260507005326 61 54 2.0 6.0 0.00 0.00 0.00 62 1010.1
20260507005227 61 53 2.0 6.0 0.00 0.00 0.00 61 1010.4
20260507005126 61 48 3.0 6.0 0.00 0.00 0.00 61 1010.3
20260507005026 61 47 3.0 6.0 0.00 0.00 0.00 62 1010.4
20260507004927 61 44 2.0 6.0 0.00 0.00 0.00 62 1010.3
20260507004826 60 40 3.0 6.0 0.00 0.00 0.00 62 1010.2
20260507004727 60 38 4.0 6.0 0.00 0.00 0.00 63 1010.4
20260507004626 60 42 2.0 6.0 0.00 0.00 0.00 63 1010.3
20260507004526 60 44 3.0 6.0 0.00 0.00 0.00 63 1010.6
20260507004427 60 44 3.0 6.0 0.00 0.00 0.00 63 1010.5
20260507004326 60 49 2.0 4.0 0.00 0.00 0.00 64 1010.5
20260507004227 60 51 2.0 4.0 0.00 0.00 0.00 63 1010.5
20260507004127 60 56 2.0 4.0 0.00 0.00 0.00 63 1010.4
20260507004027 60 58 2.0 4.0 0.00 0.00 0.00 63 1010.4
20260507003927 60 60 3.0 4.0 0.00 0.00 0.00 63 1010.2
20260507003826 60 63 3.0 4.0 0.00 0.00 0.00 63 1010.5
20260507003727 60 65 4.0 4.0 0.00 0.00 0.00 64 1010.5
20260507003626 60 65 3.0 6.0 0.00 0.00 0.00 64 1010.5
20260507003528 60 67 2.0 6.0 0.00 0.00 0.00 65 1010.3
20260507003426 59 67 2.0 7.0 0.00 0.00 0.00 66 1010.5
20260507003326 59 63 2.0 7.0 0.00 0.00 0.00 66 1010.4
20260507003226 60 61 2.0 7.0 0.00 0.00 0.00 66 1010.5
20260507003127 60 60 2.0 7.0 0.00 0.00 0.00 65 1010.5
20260507003027 60 58 2.0 7.0 0.00 0.00 0.00 65 1010.6
20260507002926 60 54 2.0 7.0 0.00 0.00 0.00 65 1010.7
20260507002826 60 48 2.0 7.0 0.00 0.00 0.00 64 1010.4
20260507002727 60 45 4.0 7.0 0.00 0.00 0.00 64 1010.5
20260507002626 60 42 4.0 7.0 0.00 0.00 0.00 64 1010.5
20260507002526 60 39 5.0 7.0 0.00 0.00 0.00 64 1010.5
20260507002427 60 38 5.0 7.0 0.00 0.00 0.00 64 1010.5
20260507002326 60 36 4.0 6.0 0.00 0.00 0.00 64 1010.5
20260507002227 60 35 4.0 6.0 0.00 0.00 0.00 64 1010.3
20260507002126 60 33 3.0 6.0 0.00 0.00 0.00 64 1010.4
20260507002026 61 36 3.0 6.0 0.00 0.00 0.00 64 1010.4
20260507001926 61 41 3.0 6.0 0.00 0.00 0.00 63 1010.5
20260507001826 61 48 2.0 6.0 0.00 0.00 0.00 63 1010.6
20260507001726 60 51 4.0 6.0 0.00 0.00 0.00 63 1010.3
20260507001626 60 53 4.0 4.0 0.00 0.00 0.00 64 1010.6
20260507001526 61 55 2.0 4.0 0.00 0.00 0.00 63 1010.7
20260507001426 61 57 3.0 4.0 0.00 0.00 0.00 63 1010.5
20260507001326 61 59 3.0 4.0 0.00 0.00 0.00 63 1010.5
20260507001226 61 63 3.0 4.0 0.00 0.00 0.00 63 1010.4
20260507001126 61 66 2.0 4.0 0.00 0.00 0.00 63 1010.6
20260507001026 61 67 3.0 4.0 0.00 0.00 0.00 62 1010.4
20260507000926 61 67 2.0 4.0 0.00 0.00 0.00 63 1010.5
20260507000826 60 67 2.0 6.0 0.00 0.00 0.00 66 1010.6
20260507000726 60 72 2.0 6.0 0.00 0.00 0.00 66 1010.5
20260507000626 60 73 2.0 6.0 0.00 0.00 0.00 66 1010.5
20260507000526 60 73 2.0 7.0 0.00 0.00 0.00 66 1010.4
20260507000427 60 70 2.0 7.0 0.00 0.00 0.00 66 1010.6
20260507000328 60 70 2.0 7.0 0.00 0.00 0.00 66 1010.5
20260507000227 60 66 2.0 7.0 0.00 0.00 0.00 66 1010.6
20260507000126 60 64 2.0 7.0 0.00 0.00 0.00 66 1010.6
20260507000027 60 60 2.0 7.0 0.00 0.00 0.00 66 1010.6
20260506235926 60 57 2.0 7.0 0.00 0.00 0.00 66 1010.5
20260506235826 61 52 3.0 7.0 0.00 0.00 0.00 65 1010.5
20260506235726 61 49 3.0 7.0 0.00 0.00 0.00 65 1010.6
20260506235626 61 45 4.0 7.0 0.00 0.00 0.00 65 1010.3
20260506235526 61 42 4.0 7.0 0.00 0.00 0.00 65 1010.6
20260506235426 61 41 4.0 6.0 0.00 0.00 0.00 64 1010.4
20260506235326 61 38 4.0 6.0 0.00 0.00 0.00 64 1010.5
20260506235226 61 38 4.0 4.0 0.00 0.00 0.00 64 1010.4
20260506235126 61 37 2.0 4.0 0.00 0.00 0.00 64 1010.4
20260506235026 61 45 2.0 4.0 0.00 0.00 0.00 64 1010.3
20260506234926 62 47 2.0 4.0 0.00 0.00 0.00 64 1010.3
20260506234827 62 51 2.0 4.0 0.00 0.00 0.00 64 1010.4
20260506234726 62 51 2.0 4.0 0.00 0.00 0.00 63 1010.4
20260506234626 62 51 1.0 4.0 0.00 0.00 0.00 63 1010.4
20260506234526 62 51 1.0 4.0 0.00 0.00 0.00 63 1010.5
20260506234426 62 51 1.0 4.0 0.00 0.00 0.00 63 1010.6
20260506234326 62 51 2.0 4.0 0.00 0.00 0.00 63 1010.3
20260506234227 62 52 2.0 4.0 0.00 0.00 0.00 62 1010.6
20260506234127 62 54 2.0 4.0 0.00 0.00 0.00 62 1010.5
20260506234026 62 54 3.0 4.0 0.00 0.00 0.00 62 1010.6
20260506233927 62 53 2.0 4.0 0.00 0.00 0.00 62 1010.8
20260506233826 62 51 2.0 4.0 0.00 0.00 0.00 61 1010.7
20260506233726 62 52 2.0 4.0 0.00 0.00 0.00 61 1010.6
20260506233626 62 47 2.0 4.0 0.00 0.00 0.00 61 1010.7
20260506233526 62 43 2.0 4.0 0.00 0.00 0.00 61 1010.7
20260506233426 62 41 2.0 4.0 0.00 0.00 0.00 60 1010.6
20260506233326 62 37 2.0 4.0 0.00 0.00 0.00 60 1010.7
20260506233226 62 29 2.0 4.0 0.00 0.00 0.00 60 1010.6
20260506233126 62 16 2.0 2.0 0.00 0.00 0.00 61 1010.5
20260506233026 62 11 2.0 2.0 0.00 0.00 0.00 61 1010.6
20260506232926 62 360 2.0 2.0 0.00 0.00 0.00 60 1010.7
20260506232826 62 350 2.0 2.0 0.00 0.00 0.00 60 1010.7
20260506232726 63 341 2.0 2.0 0.00 0.00 0.00 60 1010.6
20260506232626 63 334 2.0 2.0 0.00 0.00 0.00 60 1010.7
20260506232526 63 324 2.0 2.0 0.00 0.00 0.00 60 1010.7
20260506232426 63 316 2.0 2.0 0.00 0.00 0.00 60 1010.7
20260506232326 63 304 1.0 2.0 0.00 0.00 0.00 60 1010.9
20260506232226 62 292 1.0 2.0 0.00 0.00 0.00 60 1010.9
20260506232126 62 237 1.0 2.0 0.00 0.00 0.00 60 1010.8
20260506232026 62 163 0.0 2.0 0.00 0.00 0.00 61 1010.8
20260506231926 62 146 1.0 2.0 0.00 0.00 0.00 61 1010.9
20260506231826 62 139 1.0 2.0 0.00 0.00 0.00 60 1010.7
20260506231726 63 137 1.0 2.0 0.00 0.00 0.00 60 1010.9
20260506231626 63 136 0.0 2.0 0.00 0.00 0.00 59 1010.9
20260506231526 63 135 0.0 2.0 0.00 0.00 0.00 59 1011.0
20260506231426 63 130 2.0 2.0 0.00 0.00 0.00 59 1010.9
20260506231326 63 124 2.0 2.0 0.00 0.00 0.00 59 1010.7
20260506231227 63 121 2.0 2.0 0.00 0.00 0.00 59 1010.9
20260506231126 63 115 2.0 2.0 0.00 0.00 0.00 60 1011.0
20260506231026 62 96 1.0 2.0 0.00 0.00 0.00 60 1010.9
20260506230926 62 85 2.0 2.0 0.00 0.00 0.00 60 1011.0
20260506230826 62 73 1.0 2.0 0.00 0.00 0.00 60 1010.9
20260506230726 62 67 0.0 2.0 0.00 0.00 0.00 61 1010.9
20260506230626 62 67 0.0 2.0 0.00 0.00 0.00 60 1010.9
20260506230526 62 67 0.0 2.0 0.00 0.00 0.00 60 1011.0
20260506230426 62 67 0.0 2.0 0.00 0.00 0.00 60 1010.8
20260506230326 63 62 0.0 2.0 0.00 0.00 0.00 60 1010.9
20260506230226 63 57 0.0 2.0 0.00 0.00 0.00 60 1010.7
20260506230126 62 55 0.0 2.0 0.00 0.00 0.00 60 1011.0
20260506230026 62 51 1.0 2.0 0.00 0.00 0.00 60 1010.9
20260506225926 63 44 1.0 2.0 0.00 0.00 0.00 60 1010.7
20260506225826 63 32 0.0 2.0 0.00 0.00 0.00 60 1010.9
20260506225726 63 28 0.0 2.0 0.00 0.00 0.00 60 1010.9
20260506225626 63 27 0.0 2.0 0.00 0.00 0.00 60 1010.9
20260506225526 63 23 0.0 2.0 0.00 0.00 0.00 60 1011.0
20260506225426 63 23 0.0 2.0 0.00 0.00 0.00 61 1011.2
20260506225326 63 19 2.0 2.0 0.00 0.00 0.00 61 1010.8
20260506225226 63 14 0.0 2.0 0.00 0.00 0.00 61 1010.8
20260506225126 63 3 1.0 4.0 0.00 0.00 0.00 61 1010.8
20260506225026 63 357 0.0 4.0 0.00 0.00 0.00 61 1010.8
20260506224926 63 356 1.0 4.0 0.00 0.00 0.00 61 1010.9
20260506224826 63 356 1.0 4.0 0.00 0.00 0.00 60 1011.0
20260506224726 63 355 0.0 4.0 0.00 0.00 0.00 61 1011.0
20260506224626 64 359 2.0 4.0 0.00 0.00 0.00 60 1010.9
20260506224526 64 359 0.0 4.0 0.00 0.00 0.00 60 1011.0
20260506224426 64 359 1.0 4.0 0.00 0.00 0.00 60 1011.0
20260506224326 64 1 2.0 4.0 0.00 0.00 0.00 59 1010.9
20260506224226 63 3 3.0 4.0 0.00 0.00 0.00 60 1010.8
20260506224126 63 8 2.0 4.0 0.00 0.00 0.00 61 1010.7
20260506224026 62 12 2.0 4.0 0.00 0.00 0.00 61 1010.9
20260506223927 62 14 3.0 4.0 0.00 0.00 0.00 63 1011.0
20260506223826 62 15 4.0 4.0 0.00 0.00 0.00 63 1011.1
20260506223726 62 17 2.0 4.0 0.00 0.00 0.00 63 1011.0
20260506223626 62 12 3.0 4.0 0.00 0.00 0.00 63 1010.9
20260506223526 62 8 4.0 4.0 0.00 0.00 0.00 63 1011.0
20260506223426 62 11 2.0 4.0 0.00 0.00 0.00 62 1011.0
20260506223326 62 3 2.0 2.0 0.00 0.00 0.00 63 1011.2
20260506223226 62 341 2.0 2.0 0.00 0.00 0.00 62 1011.1
20260506223126 62 312 0.0 2.0 0.00 0.00 0.00 63 1011.2
20260506223026 62 303 1.0 2.0 0.00 0.00 0.00 63 1011.2
20260506222926 62 292 1.0 2.0 0.00 0.00 0.00 63 1011.1
20260506222826 63 283 0.0 2.0 0.00 0.00 0.00 63 1011.1
20260506222726 63 271 1.0 2.0 0.00 0.00 0.00 63 1011.1
20260506222626 62 264 0.0 2.0 0.00 0.00 0.00 62 1011.0
20260506222528 62 259 0.0 2.0 0.00 0.00 0.00 62 1011.1
20260506222426 62 256 0.0 2.0 0.00 0.00 0.00 62 1011.2
20260506222326 63 255 0.0 4.0 0.00 0.00 0.00 62 1011.2
20260506222226 62 256 1.0 4.0 0.00 0.00 0.00 62 1011.3
20260506222126 62 249 1.0 4.0 0.00 0.00 0.00 62 1011.0
20260506222026 62 241 1.0 4.0 0.00 0.00 0.00 62 1011.0
20260506221926 62 235 1.0 4.0 0.00 0.00 0.00 62 1011.2
20260506221826 63 234 0.0 4.0 0.00 0.00 0.00 62 1011.2
20260506221726 63 233 1.0 6.0 0.00 0.00 0.00 62 1011.1
20260506221626 63 231 2.0 6.0 0.00 0.00 0.00 62 1011.2
20260506221527 63 230 2.0 6.0 0.00 0.00 0.00 62 1011.2
20260506221426 63 228 1.0 6.0 0.00 0.00 0.00 62 1011.1
20260506221326 63 226 2.0 6.0 0.00 0.00 0.00 62 1011.2
20260506221226 63 225 2.0 6.0 0.00 0.00 0.00 61 1011.0
20260506221126 63 225 2.0 6.0 0.00 0.00 0.00 61 1011.0
20260506221026 63 228 2.0 6.0 0.00 0.00 0.00 61 1011.0
20260506220926 63 232 3.0 6.0 0.00 0.00 0.00 62 1011.3
20260506220826 63 236 4.0 6.0 0.00 0.00 0.00 62 1011.0
20260506220726 63 240 4.0 6.0 0.00 0.00 0.00 62 1011.0
20260506220626 63 265 3.0 4.0 0.00 0.00 0.00 62 1011.1
20260506220526 63 306 2.0 2.0 0.00 0.00 0.00 62 1010.9
20260506220426 63 318 2.0 2.0 0.00 0.00 0.00 62 1011.0
20260506220326 63 331 2.0 2.0 0.00 0.00 0.00 62 1011.0
20260506220226 63 338 2.0 2.0 0.00 0.00 0.00 62 1011.1
20260506220126 62 340 2.0 2.0 0.00 0.00 0.00 62 1011.0
20260506220028 62 331 2.0 2.0 0.00 0.00 0.00 61 1011.0
20260506215926 62 318 2.0 2.0 0.00 0.00 0.00 61 1011.0
20260506215826 62 308 2.0 2.0 0.00 0.00 0.00 61 1011.4
20260506215726 62 301 1.0 2.0 0.00 0.00 0.00 61 1011.1
20260506215626 63 291 1.0 2.0 0.00 0.00 0.00 61 1011.0
20260506215526 63 286 0.0 2.0 0.00 0.00 0.00 61 1011.0
20260506215426 63 283 1.0 2.0 0.00 0.00 0.00 61 1011.1
20260506215326 63 278 1.0 2.0 0.00 0.00 0.00 61 1011.3
20260506215226 63 271 1.0 2.0 0.00 0.00 0.00 61 1011.1
20260506215126 63 264 1.0 4.0 0.00 0.00 0.00 61 1010.9
20260506215026 63 256 1.0 4.0 0.00 0.00 0.00 60 1011.2
20260506214926 63 252 1.0 4.0 0.00 0.00 0.00 60 1011.1
20260506214826 63 248 0.0 4.0 0.00 0.00 0.00 60 1011.0
20260506214726 63 247 0.0 6.0 0.00 0.00 0.00 60 1011.2
20260506214626 63 247 0.0 6.0 0.00 0.00 0.00 59 1011.0
20260506214526 63 247 0.0 6.0 0.00 0.00 0.00 59 1010.8
20260506214426 63 247 0.0 6.0 0.00 0.00 0.00 59 1011.0
20260506214326 63 247 2.0 6.0 0.00 0.00 0.00 59 1011.1
20260506214226 63 245 2.0 6.0 0.00 0.00 0.00 59 1010.9
20260506214126 63 244 2.0 6.0 0.00 0.00 0.00 58 1010.9
20260506214026 63 240 2.0 6.0 0.00 0.00 0.00 58 1011.0
20260506213926 63 240 2.0 6.0 0.00 0.00 0.00 58 1011.1
20260506213826 63 234 4.0 6.0 0.00 0.00 0.00 58 1010.8
20260506213726 63 230 4.0 6.0 0.00 0.00 0.00 58 1011.1
20260506213626 63 222 3.0 4.0 0.00 0.00 0.00 58 1011.0
20260506213526 63 212 3.0 4.0 0.00 0.00 0.00 58 1011.2
20260506213426 63 197 2.0 4.0 0.00 0.00 0.00 58 1010.8
20260506213326 63 189 2.0 4.0 0.00 0.00 0.00 58 1010.9
20260506213226 63 174 2.0 4.0 0.00 0.00 0.00 58 1011.2
20260506213126 63 156 2.0 4.0 0.00 0.00 0.00 58 1011.1
20260506213026 63 157 2.0 4.0 0.00 0.00 0.00 58 1011.2
20260506212926 63 153 2.0 4.0 0.00 0.00 0.00 59 1011.2
20260506212826 63 149 2.0 4.0 0.00 0.00 0.00 59 1011.0
20260506212726 63 141 2.0 4.0 0.00 0.00 0.00 59 1010.9
20260506212626 63 136 1.0 4.0 0.00 0.00 0.00 60 1011.3
20260506212526 63 133 1.0 4.0 0.00 0.00 0.00 60 1011.1
20260506212426 63 132 1.0 4.0 0.00 0.00 0.00 60 1011.2
20260506212326 63 132 0.0 4.0 0.00 0.00 0.00 60 1011.3
20260506212226 63 129 2.0 4.0 0.00 0.00 0.00 60 1011.2
20260506212126 63 122 2.0 4.0 0.00 0.00 0.00 60 1011.2
20260506212026 63 117 2.0 4.0 0.00 0.00 0.00 59 1011.3
20260506211926 63 104 2.0 4.0 0.00 0.00 0.00 60 1011.1
20260506211826 63 102 2.0 2.0 0.00 0.00 0.00 60 1011.2
20260506211726 63 109 2.0 2.0 0.00 0.00 0.00 61 1011.3
20260506211626 63 121 1.0 2.0 0.00 0.00 0.00 60 1011.4
20260506211526 63 125 0.0 2.0 0.00 0.00 0.00 60 1011.3
20260506211426 63 134 0.0 2.0 0.00 0.00 0.00 59 1011.2
20260506211326 63 138 0.0 2.0 0.00 0.00 0.00 59 1011.3
20260506211226 63 143 1.0 2.0 0.00 0.00 0.00 59 1011.2
20260506211126 63 149 1.0 2.0 0.00 0.00 0.00 59 1011.1
20260506211026 64 152 1.0 4.0 0.00 0.00 0.00 59 1011.3
20260506210926 64 160 1.0 4.0 0.00 0.00 0.00 59 1011.2
20260506210826 64 167 0.0 4.0 0.00 0.00 0.00 59 1011.2
20260506210726 64 172 1.0 4.0 0.00 0.00 0.00 59 1011.2
20260506210627 64 174 1.0 4.0 0.00 0.00 0.00 59 1011.3
20260506210526 64 180 2.0 4.0 0.00 0.00 0.00 59 1011.2
20260506210426 64 180 1.0 4.0 0.00 0.00 0.00 59 1011.3
20260506210326 64 184 1.0 4.0 0.00 0.00 0.00 59 1011.2
20260506210226 64 185 0.0 4.0 0.00 0.00 0.00 58 1011.3
20260506210126 64 186 0.0 4.0 0.00 0.00 0.00 58 1011.1
20260506210026 64 188 2.0 4.0 0.00 0.00 0.00 58 1011.1
20260506205926 64 192 3.0 4.0 0.00 0.00 0.00 58 1011.4
20260506205826 64 192 3.0 4.0 0.00 0.00 0.00 58 1011.3
20260506205726 64 189 4.0 4.0 0.00 0.00 0.00 59 1011.1
20260506205626 64 185 3.0 4.0 0.00 0.00 0.00 60 1011.3
20260506205526 63 181 3.0 4.0 0.00 0.00 0.00 60 1011.3
20260506205426 63 173 2.0 4.0 0.00 0.00 0.00 61 1011.2
20260506205326 63 168 2.0 4.0 0.00 0.00 0.00 61 1011.2
20260506205226 63 163 2.0 2.0 0.00 0.00 0.00 62 1011.3
20260506205126 63 156 1.0 2.0 0.00 0.00 0.00 62 1011.1
20260506205026 63 150 1.0 2.0 0.00 0.00 0.00 62 1011.5
20260506204926 63 147 2.0 2.0 0.00 0.00 0.00 62 1011.3
20260506204826 63 150 1.0 2.0 0.00 0.00 0.00 62 1011.5
20260506204726 64 157 2.0 2.0 0.00 0.00 0.00 62 1011.4
20260506204626 63 157 2.0 2.0 0.00 0.00 0.00 62 1011.3
20260506204526 63 191 1.0 2.0 0.00 0.00 0.00 63 1011.5
20260506204426 63 240 1.0 2.0 0.00 0.00 0.00 63 1011.4
20260506204326 64 247 0.0 2.0 0.00 0.00 0.00 64 1011.4
20260506204226 64 247 0.0 2.0 0.00 0.00 0.00 64 1011.5
20260506204126 64 247 0.0 2.0 0.00 0.00 0.00 64 1011.4
20260506204026 64 247 0.0 2.0 0.00 0.00 0.00 64 1011.4
20260506203926 64 251 0.0 2.0 0.00 0.00 0.00 64 1011.5
20260506203826 64 247 0.0 2.0 0.00 0.00 0.00 64 1011.3
20260506203726 64 246 0.0 2.0 0.00 0.00 0.00 64 1011.4
20260506203626 64 246 0.0 2.0 0.00 0.00 0.00 64 1011.4
20260506203526 64 246 0.0 4.0 0.00 0.00 0.00 64 1011.5
20260506203426 64 247 0.0 4.0 0.00 0.00 0.00 65 1011.4
20260506203326 64 247 0.0 4.0 0.00 0.00 0.00 65 1011.7
20260506203226 64 250 0.0 4.0 0.00 0.00 0.00 65 1011.5
20260506203126 64 260 0.0 4.0 0.00 0.00 0.00 65 1011.4
20260506203026 64 264 0.0 4.0 0.00 0.00 0.00 65 1011.5
20260506202926 64 267 0.0 4.0 0.00 0.00 0.00 64 1011.3
20260506202826 64 270 1.0 4.0 0.00 0.00 0.00 64 1011.6
20260506202726 64 273 1.0 4.0 0.00 0.00 0.00 64 1011.6
20260506202626 64 275 2.0 4.0 0.00 0.00 0.00 63 1011.4
20260506202526 64 278 2.0 4.0 0.00 0.00 0.00 63 1011.4
20260506202426 64 281 2.0 4.0 0.00 0.00 0.00 63 1011.4
20260506202326 64 280 1.0 4.0 0.00 0.00 0.00 62 1011.4
20260506202226 64 275 2.0 4.0 0.00 0.00 0.00 62 1011.4
20260506202126 64 268 2.0 4.0 0.00 0.00 0.00 63 1011.5
20260506202026 64 256 2.0 4.0 0.00 0.00 0.00 63 1011.4
20260506201926 64 242 2.0 4.0 0.00 0.00 0.00 64 1011.2
20260506201826 64 230 1.0 4.0 0.00 0.00 0.00 64 1011.4
20260506201726 64 223 0.0 4.0 0.00 0.00 0.00 65 1011.4
20260506201626 64 221 0.0 4.0 0.00 0.00 0.00 65 1011.4
20260506201526 64 217 0.0 4.0 0.00 0.00 0.00 64 1011.5
20260506201426 64 215 2.0 4.0 0.00 0.00 0.00 65 1011.4
20260506201326 64 211 2.0 4.0 0.00 0.00 0.00 65 1011.4
20260506201226 64 208 2.0 4.0 0.00 0.00 0.00 65 1011.3
20260506201126 64 208 2.0 4.0 0.00 0.00 0.00 65 1011.2
20260506201026 64 205 2.0 4.0 0.00 0.00 0.00 65 1011.4
20260506200926 63 202 2.0 4.0 0.00 0.00 0.00 65 1011.4
20260506200826 63 197 2.0 4.0 0.00 0.00 0.00 66 1011.4
20260506200726 63 194 2.0 4.0 0.00 0.00 0.00 66 1011.5
20260506200626 64 189 2.0 4.0 0.00 0.00 0.00 67 1011.3
20260506200526 64 184 2.0 4.0 0.00 0.00 0.00 67 1011.2
20260506200426 64 173 2.0 4.0 0.00 0.00 0.00 67 1011.4
20260506200326 64 163 2.0 4.0 0.00 0.00 0.00 66 1011.4
20260506200226 64 154 2.0 4.0 0.00 0.00 0.00 66 1011.4
20260506200126 64 141 2.0 4.0 0.00 0.00 0.00 65 1011.4
20260506200026 64 130 2.0 2.0 0.00 0.00 0.00 66 1011.3
20260506195926 63 122 2.0 2.0 0.00 0.00 0.00 66 1011.4
20260506195827 63 115 2.0 4.0 0.00 0.00 0.00 67 1011.2
20260506195726 63 108 1.0 4.0 0.00 0.00 0.00 70 1011.3
20260506195626 64 103 0.0 4.0 0.00 0.00 0.00 71 1011.2
20260506195526 64 100 0.0 4.0 0.00 0.00 0.00 71 1011.3
20260506195426 64 96 0.0 4.0 0.00 0.00 0.00 71 1011.4
20260506195326 64 91 1.0 4.0 0.00 0.00 0.00 71 1011.3
20260506195226 64 87 1.0 4.0 0.00 0.00 0.00 71 1011.2
20260506195126 64 82 1.0 4.0 0.00 0.00 0.00 71 1011.5
20260506195026 64 75 1.0 4.0 0.00 0.00 0.00 70 1011.2
20260506194926 64 69 2.0 4.0 0.00 0.00 0.00 70 1011.2
20260506194826 65 57 2.0 2.0 0.00 0.00 0.00 69 1011.4
20260506194726 65 51 2.0 2.0 0.00 0.00 0.00 69 1011.3
20260506194626 65 46 2.0 2.0 0.00 0.00 0.00 69 1011.4
20260506194526 65 39 2.0 2.0 0.00 0.00 0.00 69 1011.2
20260506194426 65 32 2.0 2.0 0.00 0.00 0.00 70 1011.3
20260506194326 65 25 2.0 2.0 0.00 0.00 0.00 70 1011.3
20260506194226 65 16 2.0 2.0 0.00 0.00 0.00 70 1011.1
20260506194126 65 10 2.0 2.0 0.00 0.00 0.00 70 1011.4
20260506194026 65 8 2.0 2.0 0.00 0.00 0.00 69 1011.1
20260506193926 65 6 1.0 2.0 0.00 0.00 0.00 69 1011.2
20260506193826 65 3 1.0 2.0 0.00 0.00 0.00 69 1011.2
20260506193726 65 3 1.0 2.0 0.00 0.00 0.00 69 1011.1
20260506193626 65 2 1.0 2.0 0.00 0.00 0.00 68 1011.4
20260506193526 65 2 0.0 2.0 0.00 0.00 0.00 68 1011.2
20260506193426 65 358 0.0 2.0 0.00 0.00 0.00 68 1011.3
20260506193326 65 354 0.0 2.0 0.00 0.00 0.00 68 1011.2
20260506193226 65 351 1.0 2.0 0.00 0.00 0.00 68 1011.4
20260506193126 65 349 1.0 2.0 0.00 0.00 0.00 68 1011.1
20260506193026 65 346 1.0 2.0 0.00 0.00 0.00 68 1011.1
20260506192926 65 341 1.0 2.0 0.00 0.00 0.00 67 1011.2
20260506192826 65 338 1.0 2.0 0.00 0.00 0.00 67 1011.3
20260506192726 65 333 1.0 2.0 0.00 0.00 0.00 67 1011.0
20260506192626 65 326 0.0 2.0 0.00 0.00 0.00 66 1011.0
20260506192526 65 326 0.0 2.0 0.00 0.00 0.00 66 1010.9
20260506192426 65 324 0.0 2.0 0.00 0.00 0.00 66 1011.1
20260506192326 65 317 1.0 2.0 0.00 0.00 0.00 66 1011.0
20260506192226 65 300 1.0 2.0 0.00 0.00 0.00 67 1011.1
20260506192126 65 285 2.0 2.0 0.00 0.00 0.00 67 1010.8
20260506192026 65 267 2.0 2.0 0.00 0.00 0.00 68 1011.0
20260506191926 65 244 2.0 2.0 0.00 0.00 0.00 68 1011.1